Observation data for Junction on 11/09/2019      Previous  Date       Current Mesonet Observations  Soil Data  Daily Summary Page  Observations in Plain Language
KJU1 090600Z 20001KT 05/05 A3035 RMK A01 T00460045  RH  099%=      5-min Rain = 0
KJU1 090601Z 20001KT 05/05 A3035 RMK A01 T00460045  RH  099%=      5-min Rain = 0
KJU1 090602Z 20000KT 05/04 A3035 RMK A01 T00450044  RH  099%=      5-min Rain = 0
KJU1 090603Z 20001KT 05/04 A3035 RMK A01 T00450044  RH  099%=      5-min Rain = 0
KJU1 090604Z 20001KT 05/05 A3035 RMK A01 T00450045  RH  099%=      5-min Rain = 0
KJU1 090605Z 20001KT 05/05 A3035 RMK A01 T00460046  RH  100%=      5-min Rain = 0
KJU1 090606Z 20001KT 05/05 A3035 RMK A01 T00460046  RH  100%=      5-min Rain = 0
KJU1 090607Z 20001KT 05/05 A3035 RMK A01 T00460046  RH  100%=      5-min Rain = 0
KJU1 090608Z 20001KT 05/05 A3035 RMK A01 T00460045  RH  099%=      5-min Rain = 0
KJU1 090609Z 20001KT 05/05 A3035 RMK A01 T00460045  RH  099%=      5-min Rain = 0
KJU1 090610Z 20001KT 05/05 A3035 RMK A01 T00460045  RH  099%=      5-min Rain = 0
KJU1 090611Z 20001KT 05/04 A3035 RMK A01 T00450044  RH  099%=      5-min Rain = 0
KJU1 090612Z 20001KT 05/05 A3035 RMK A01 T00450045  RH  099%=      5-min Rain = 0
KJU1 090613Z 20000KT 05/04 A3035 RMK A01 T00450044  RH  099%=      5-min Rain = 0
KJU1 090614Z 20000KT 05/04 A3035 RMK A01 T00450044  RH  099%=      5-min Rain = 0
KJU1 090615Z 00000KT 04/04 A3035 RMK A01 T00440043  RH  099%=      5-min Rain = 0
KJU1 090616Z 17001KT 04/04 A3035 RMK A01 T00440043  RH  099%=      5-min Rain = 0
KJU1 090617Z 17001KT 04/04 A3035 RMK A01 T00430042  RH  099%=      5-min Rain = 0
KJU1 090618Z 16001KT 04/04 A3035 RMK A01 T00430042  RH  099%=      5-min Rain = 0
KJU1 090619Z 14001KT 04/04 A3034 RMK A01 T00430042  RH  099%=      5-min Rain = 0
KJU1 090620Z 14001KT 04/04 A3034 RMK A01 T00420041  RH  099%=      5-min Rain = 0
KJU1 090621Z 15001KT 04/04 A3034 RMK A01 T00420041  RH  099%=      5-min Rain = 0
KJU1 090622Z 15001KT 04/04 A3034 RMK A01 T00420041  RH  099%=      5-min Rain = 0
KJU1 090623Z 15000KT 04/04 A3034 RMK A01 T00420041  RH  099%=      5-min Rain = 0
KJU1 090624Z 00000KT 04/04 A3034 RMK A01 T00420041  RH  099%=      5-min Rain = 0
KJU1 090625Z 00000KT 04/04 A3034 RMK A01 T00430042  RH  100%=      5-min Rain = 0
KJU1 090626Z 00000KT 04/04 A3034 RMK A01 T00440043  RH  100%=      5-min Rain = 0
KJU1 090627Z 00000KT 05/04 A3034 RMK A01 T00450044  RH  100%=      5-min Rain = 0
KJU1 090628Z 00000KT 05/05 A3034 RMK A01 T00450045  RH  100%=      5-min Rain = 0
KJU1 090629Z 00000KT 05/04 A3034 RMK A01 T00450044  RH  100%=      5-min Rain = 0
KJU1 090630Z 00000KT 05/05 A3034 RMK A01 T00450045  RH  100%=      5-min Rain = 0
KJU1 090631Z 00000KT 05/05 A3034 RMK A01 T00460046  RH  100%=      5-min Rain = 0
KJU1 090632Z 24001KT 05/05 A3034 RMK A01 T00470046  RH  100%=      5-min Rain = 0
KJU1 090633Z 25001KT 05/05 A3034 RMK A01 T00460045  RH  100%=      5-min Rain = 0
KJU1 090634Z 25002KT 04/04 A3034 RMK A01 T00430042  RH  099%=      5-min Rain = 0
KJU1 090635Z 25001KT 04/04 A3034 RMK A01 T00420040  RH  099%=      5-min Rain = 0
KJU1 090636Z 25001KT 04/04 A3034 RMK A01 T00410039  RH  099%=      5-min Rain = 0
KJU1 090637Z 25001KT 04/04 A3034 RMK A01 T00400039  RH  099%=      5-min Rain = 0
KJU1 090638Z 24001KT 04/04 A3034 RMK A01 T00400039  RH  099%=      5-min Rain = 0
KJU1 090639Z 24001KT 04/04 A3034 RMK A01 T00400039  RH  099%=      5-min Rain = 0
KJU1 090640Z 24001KT 04/04 A3034 RMK A01 T00400039  RH  099%=      5-min Rain = 0
KJU1 090641Z 24001KT 04/04 A3034 RMK A01 T00390039  RH  099%=      5-min Rain = 0
KJU1 090642Z 23001KT 04/04 A3034 RMK A01 T00390039  RH  100%=      5-min Rain = 0
KJU1 090643Z 23001KT 04/04 A3034 RMK A01 T00390039  RH  100%=      5-min Rain = 0
KJU1 090644Z 23001KT 04/04 A3033 RMK A01 T00390039  RH  100%=      5-min Rain = 0
KJU1 090645Z 23001KT 04/04 A3033 RMK A01 T00400039  RH  100%=      5-min Rain = 0
KJU1 090646Z 23000KT 04/04 A3033 RMK A01 T00400039  RH  100%=      5-min Rain = 0
KJU1 090647Z 00000KT 04/04 A3033 RMK A01 T00400039  RH  100%=      5-min Rain = 0
KJU1 090648Z 00000KT 04/04 A3033 RMK A01 T00410040  RH  100%=      5-min Rain = 0
KJU1 090649Z 00000KT 04/04 A3033 RMK A01 T00410041  RH  100%=      5-min Rain = 0
KJU1 090650Z 20001KT 04/04 A3033 RMK A01 T00410041  RH  100%=      5-min Rain = 0
KJU1 090651Z 20001KT 04/04 A3033 RMK A01 T00420041  RH  100%=      5-min Rain = 0
KJU1 090652Z 20001KT 04/04 A3033 RMK A01 T00420041  RH  100%=      5-min Rain = 0
KJU1 090653Z 21001KT 04/04 A3033 RMK A01 T00420042  RH  100%=      5-min Rain = 0
KJU1 090654Z 21001KT 04/04 A3033 RMK A01 T00420042  RH  100%=      5-min Rain = 0
KJU1 090655Z 21001KT 04/04 A3033 RMK A01 T00420042  RH  100%=      5-min Rain = 0
KJU1 090656Z 20000KT 04/04 A3033 RMK A01 T00420042  RH  100%=      5-min Rain = 0
KJU1 090657Z 19000KT 04/04 A3033 RMK A01 T00420042  RH  100%=      5-min Rain = 0
KJU1 090658Z 19001KT 04/04 A3033 RMK A01 T00420042  RH  100%=      5-min Rain = 0
KJU1 090659Z 19000KT 04/04 A3033 RMK A01 T00420042  RH  100%=      5-min Rain = 0
KJU1 090700Z 00000KT 04/04 A3033 RMK A01 T00420042  RH  100%=      5-min Rain = 0
KJU1 090701Z 19000KT 04/04 A3033 RMK A01 T00420042  RH  100%=      5-min Rain = 0
KJU1 090702Z 20001KT 04/04 A3033 RMK A01 T00420042  RH  100%=      5-min Rain = 0
KJU1 090703Z 20002KT 04/04 A3033 RMK A01 T00420042  RH  100%=      5-min Rain = 0
KJU1 090704Z 20002KT 04/04 A3033 RMK A01 T00430042  RH  100%=      5-min Rain = 0
KJU1 090705Z 21002KT 04/04 A3033 RMK A01 T00430043  RH  100%=      5-min Rain = 0
KJU1 090706Z 21002KT 04/04 A3033 RMK A01 T00430043  RH  100%=      5-min Rain = 0
KJU1 090707Z 22002KT 04/04 A3033 RMK A01 T00430043  RH  100%=      5-min Rain = 0
KJU1 090708Z 22001KT 04/04 A3033 RMK A01 T00430043  RH  100%=      5-min Rain = 0
KJU1 090709Z 22001KT 04/04 A3033 RMK A01 T00430043  RH  100%=      5-min Rain = 0
KJU1 090710Z 23002KT 04/04 A3033 RMK A01 T00440044  RH  100%=      5-min Rain = 0
KJU1 090711Z 23001KT 05/05 A3034 RMK A01 T00450045  RH  100%=      5-min Rain = 0
KJU1 090712Z 23001KT 05/05 A3034 RMK A01 T00460045  RH  100%=      5-min Rain = 0
KJU1 090713Z 23001KT 05/05 A3034 RMK A01 T00460046  RH  100%=      5-min Rain = 0
KJU1 090714Z 23001KT 05/05 A3034 RMK A01 T00460046  RH  100%=      5-min Rain = 0
KJU1 090715Z 23001KT 05/05 A3034 RMK A01 T00460046  RH  100%=      5-min Rain = 0
KJU1 090722Z 23001KT 04/04 A3034 RMK A01 T00410041  RH  100%=      5-min Rain = 0
KJU1 090723Z 23001KT 04/04 A3034 RMK A01 T00410040  RH  100%=      5-min Rain = 0
KJU1 090724Z 23000KT 04/04 A3033 RMK A01 T00410041  RH  100%=      5-min Rain = 0
KJU1 090725Z 22001KT 04/04 A3033 RMK A01 T00410041  RH  100%=      5-min Rain = 0
KJU1 090726Z 21001KT 04/04 A3033 RMK A01 T00410041  RH  100%=      5-min Rain = 0
KJU1 090727Z 21001KT 04/04 A3033 RMK A01 T00420042  RH  100%=      5-min Rain = 0
KJU1 090728Z 21001KT 04/04 A3033 RMK A01 T00420042  RH  100%=      5-min Rain = 0
KJU1 090729Z 21000KT 04/04 A3033 RMK A01 T00410041  RH  100%=      5-min Rain = 0
KJU1 090730Z 00000KT 04/04 A3033 RMK A01 T00410040  RH  100%=      5-min Rain = 0
KJU1 090731Z 00000KT 04/04 A3033 RMK A01 T00400040  RH  100%=      5-min Rain = 0
KJU1 090732Z 00000KT 04/04 A3033 RMK A01 T00400039  RH  100%=      5-min Rain = 0
KJU1 090733Z 00000KT 04/04 A3033 RMK A01 T00390039  RH  100%=      5-min Rain = 0
KJU1 090734Z 00000KT 04/04 A3033 RMK A01 T00390038  RH  100%=      5-min Rain = 0
KJU1 090735Z 00000KT 04/04 A3033 RMK A01 T00380038  RH  100%=      5-min Rain = 0
KJU1 090736Z 00000KT 04/04 A3033 RMK A01 T00380038  RH  100%=      5-min Rain = 0
KJU1 090737Z 00000KT 04/04 A3033 RMK A01 T00380038  RH  100%=      5-min Rain = 0
KJU1 090738Z 00000KT 04/04 A3033 RMK A01 T00380038  RH  100%=      5-min Rain = 0
KJU1 090739Z 00000KT 04/04 A3033 RMK A01 T00380038  RH  100%=      5-min Rain = 0
KJU1 090740Z 00000KT 04/04 A3033 RMK A01 T00380038  RH  100%=      5-min Rain = 0
KJU1 090741Z 00000KT 04/04 A3033 RMK A01 T00380038  RH  100%=      5-min Rain = 0
KJU1 090742Z 00000KT 04/04 A3033 RMK A01 T00390038  RH  100%=      5-min Rain = 0
KJU1 090743Z 00000KT 04/04 A3033 RMK A01 T00390038  RH  100%=      5-min Rain = 0
KJU1 090744Z 00000KT 04/04 A3033 RMK A01 T00390038  RH  100%=      5-min Rain = 0
KJU1 090745Z 00000KT 04/04 A3033 RMK A01 T00390038  RH  100%=      5-min Rain = 0
KJU1 090746Z 00000KT 04/04 A3033 RMK A01 T00380038  RH  100%=      5-min Rain = 0
KJU1 090747Z 00000KT 04/04 A3033 RMK A01 T00390038  RH  100%=      5-min Rain = 0
KJU1 090748Z 00000KT 04/04 A3033 RMK A01 T00390038  RH  100%=      5-min Rain = 0
KJU1 090749Z 00000KT 04/04 A3033 RMK A01 T00380038  RH  100%=      5-min Rain = 0
KJU1 090750Z 00000KT 04/04 A3033 RMK A01 T00380038  RH  100%=      5-min Rain = 0
KJU1 090751Z 22000KT 04/04 A3033 RMK A01 T00380038  RH  100%=      5-min Rain = 0
KJU1 090752Z 22001KT 04/04 A3033 RMK A01 T00380038  RH  100%=      5-min Rain = 0
KJU1 090753Z 22001KT 04/04 A3032 RMK A01 T00380038  RH  100%=      5-min Rain = 0
KJU1 090754Z 22001KT 04/04 A3032 RMK A01 T00390038  RH  100%=      5-min Rain = 0
KJU1 090755Z 22001KT 04/04 A3032 RMK A01 T00390038  RH  100%=      5-min Rain = 0
KJU1 090756Z 21002KT 04/04 A3032 RMK A01 T00390038  RH  100%=      5-min Rain = 0
KJU1 090757Z 21002KT 04/04 A3032 RMK A01 T00390038  RH  100%=      5-min Rain = 0
KJU1 090758Z 21002KT 04/04 A3032 RMK A01 T00390038  RH  100%=      5-min Rain = 0
KJU1 090759Z 22002KT 04/04 A3032 RMK A01 T00380038  RH  100%=      5-min Rain = 0
KJU1 090800Z 22001KT 04/04 A3032 RMK A01 T00390039  RH  100%=      5-min Rain = 0
KJU1 090801Z 23001KT 04/04 A3032 RMK A01 T00390038  RH  100%=      5-min Rain = 0
KJU1 090802Z 23001KT 04/04 A3032 RMK A01 T00390038  RH  100%=      5-min Rain = 0
KJU1 090803Z 23001KT 04/04 A3032 RMK A01 T00390039  RH  100%=      5-min Rain = 0
KJU1 090804Z 24001KT 04/04 A3032 RMK A01 T00390039  RH  100%=      5-min Rain = 0
KJU1 090805Z 24000KT 04/04 A3032 RMK A01 T00400040  RH  100%=      5-min Rain = 0
KJU1 090806Z 00000KT 04/04 A3032 RMK A01 T00400040  RH  100%=      5-min Rain = 0
KJU1 090807Z 00000KT 04/04 A3032 RMK A01 T00400040  RH  100%=      5-min Rain = 0
KJU1 090808Z 00000KT 04/04 A3032 RMK A01 T00400040  RH  100%=      5-min Rain = 0
KJU1 090809Z 00000KT 04/04 A3032 RMK A01 T00400040  RH  100%=      5-min Rain = 0
KJU1 090810Z 00000KT 04/04 A3032 RMK A01 T00400040  RH  100%=      5-min Rain = 0
KJU1 090811Z 00000KT 04/04 A3032 RMK A01 T00400040  RH  100%=      5-min Rain = 0
KJU1 090812Z 00000KT 04/04 A3032 RMK A01 T00400040  RH  100%=      5-min Rain = 0
KJU1 090813Z 00000KT 04/04 A3032 RMK A01 T00400040  RH  100%=      5-min Rain = 0
KJU1 090814Z 00000KT 04/04 A3032 RMK A01 T00400040  RH  100%=      5-min Rain = 0
KJU1 090815Z 17001KT 04/04 A3032 RMK A01 T00410041  RH  100%=      5-min Rain = 0
KJU1 090816Z 16001KT 04/04 A3032 RMK A01 T00410041  RH  100%=      5-min Rain = 0
KJU1 090817Z 16001KT 04/04 A3031 RMK A01 T00420042  RH  100%=      5-min Rain = 0
KJU1 090818Z 16001KT 04/04 A3031 RMK A01 T00420042  RH  100%=      5-min Rain = 0
KJU1 090819Z 16001KT 04/04 A3031 RMK A01 T00430043  RH  100%=      5-min Rain = 0
KJU1 090820Z 15001KT 04/04 A3031 RMK A01 T00430043  RH  100%=      5-min Rain = 0
KJU1 090821Z 15001KT 04/04 A3031 RMK A01 T00440044  RH  100%=      5-min Rain = 0
KJU1 090822Z 15001KT 04/04 A3031 RMK A01 T00440044  RH  100%=      5-min Rain = 0
KJU1 090823Z 16001KT 04/04 A3031 RMK A01 T00440044  RH  100%=      5-min Rain = 0
KJU1 090824Z 17001KT 04/04 A3031 RMK A01 T00440044  RH  100%=      5-min Rain = 0
KJU1 090825Z 18001KT 05/05 A3031 RMK A01 T00450045  RH  100%=      5-min Rain = 0
KJU1 090826Z 18001KT 04/04 A3031 RMK A01 T00440044  RH  100%=      5-min Rain = 0
KJU1 090827Z 18001KT 04/04 A3031 RMK A01 T00440044  RH  100%=      5-min Rain = 0
KJU1 090828Z 19001KT 04/04 A3031 RMK A01 T00440044  RH  100%=      5-min Rain = 0
KJU1 090829Z 19002KT 04/04 A3031 RMK A01 T00440043  RH  100%=      5-min Rain = 0
KJU1 090830Z 20002KT 04/04 A3031 RMK A01 T00430043  RH  100%=      5-min Rain = 0
KJU1 090831Z 20001KT 04/04 A3031 RMK A01 T00440044  RH  100%=      5-min Rain = 0
KJU1 090832Z 21001KT 04/04 A3031 RMK A01 T00440043  RH  100%=      5-min Rain = 0
KJU1 090833Z 21001KT 04/04 A3031 RMK A01 T00430043  RH  100%=      5-min Rain = 0
KJU1 090834Z 22001KT 04/04 A3031 RMK A01 T00430043  RH  100%=      5-min Rain = 0
KJU1 090835Z 23001KT 04/04 A3031 RMK A01 T00440044  RH  100%=      5-min Rain = 0
KJU1 090836Z 23001KT 04/04 A3031 RMK A01 T00440044  RH  100%=      5-min Rain = 0
KJU1 090837Z 23001KT 05/04 A3031 RMK A01 T00450044  RH  100%=      5-min Rain = 0
KJU1 090838Z 23001KT 05/05 A3031 RMK A01 T00450045  RH  100%=      5-min Rain = 0
KJU1 090839Z 23000KT 04/04 A3031 RMK A01 T00440044  RH  100%=      5-min Rain = 0
KJU1 090840Z 00000KT 05/05 A3031 RMK A01 T00450045  RH  100%=      5-min Rain = 0
KJU1 090841Z 00000KT 05/05 A3031 RMK A01 T00450045  RH  100%=      5-min Rain = 0
KJU1 090842Z 16000KT 05/05 A3031 RMK A01 T00450045  RH  100%=      5-min Rain = 0
KJU1 090843Z 14001KT 05/05 A3031 RMK A01 T00450045  RH  100%=      5-min Rain = 0
KJU1 090844Z 14001KT 05/05 A3031 RMK A01 T00460046  RH  100%=      5-min Rain = 0
KJU1 090845Z 14001KT 05/05 A3031 RMK A01 T00460046  RH  100%=      5-min Rain = 0
KJU1 090846Z 14001KT 05/05 A3031 RMK A01 T00460046  RH  100%=      5-min Rain = 0
KJU1 090847Z 15001KT 05/05 A3031 RMK A01 T00460046  RH  100%=      5-min Rain = 0
KJU1 090848Z 16001KT 05/05 A3031 RMK A01 T00460046  RH  100%=      5-min Rain = 0
KJU1 090849Z 16001KT 05/05 A3031 RMK A01 T00460046  RH  100%=      5-min Rain = 0
KJU1 090850Z 16001KT 05/05 A3031 RMK A01 T00460046  RH  100%=      5-min Rain = 0
KJU1 090851Z 16001KT 05/05 A3031 RMK A01 T00470047  RH  100%=      5-min Rain = 0
KJU1 090852Z 16001KT 05/05 A3031 RMK A01 T00470047  RH  100%=      5-min Rain = 0
KJU1 090853Z 15001KT 05/05 A3031 RMK A01 T00470047  RH  100%=      5-min Rain = 0
KJU1 090854Z 15001KT 05/05 A303 RMK A01 T00470047  RH  100%=      5-min Rain = 0
KJU1 090855Z 15002KT 05/05 A303 RMK A01 T00460046  RH  100%=      5-min Rain = 0
KJU1 090856Z 14002KT 05/05 A303 RMK A01 T00460046  RH  100%=      5-min Rain = 0
KJU1 090857Z 14002KT 05/05 A303 RMK A01 T00460046  RH  100%=      5-min Rain = 0
KJU1 090858Z 14001KT 05/05 A303 RMK A01 T00460046  RH  100%=      5-min Rain = 0
KJU1 090859Z 13001KT 05/05 A3031 RMK A01 T00460046  RH  100%=      5-min Rain = 0
KJU1 090900Z 13000KT 05/05 A3031 RMK A01 T00460046  RH  100%=      5-min Rain = 0
KJU1 090901Z 00000KT 05/05 A3031 RMK A01 T00460046  RH  100%=      5-min Rain = 0
KJU1 090902Z 00000KT 05/05 A3031 RMK A01 T00460046  RH  100%=      5-min Rain = 0
KJU1 090903Z 00000KT 05/05 A3031 RMK A01 T00460046  RH  100%=      5-min Rain = 0
KJU1 090904Z 00000KT 05/05 A3031 RMK A01 T00460046  RH  100%=      5-min Rain = 0
KJU1 090905Z 00000KT 05/05 A3031 RMK A01 T00470047  RH  100%=      5-min Rain = 0
KJU1 090906Z 03000KT 05/05 A3031 RMK A01 T00470047  RH  100%=      5-min Rain = 0
KJU1 090907Z 03000KT 05/05 A3031 RMK A01 T00470047  RH  100%=      5-min Rain = 0
KJU1 090908Z 00000KT 05/05 A3031 RMK A01 T00470047  RH  100%=      5-min Rain = 0
KJU1 090909Z 00000KT 05/05 A3031 RMK A01 T00470047  RH  100%=      5-min Rain = 0
KJU1 090910Z 00000KT 05/05 A3031 RMK A01 T00470047  RH  100%=      5-min Rain = 0
KJU1 090911Z 00000KT 05/05 A3031 RMK A01 T00470047  RH  100%=      5-min Rain = 0
KJU1 090912Z 00000KT 05/05 A3031 RMK A01 T00470047  RH  100%=      5-min Rain = 0
KJU1 090913Z 00000KT 05/05 A3031 RMK A01 T00470047  RH  100%=      5-min Rain = 0
KJU1 090914Z 00000KT 05/05 A3031 RMK A01 T00470047  RH  100%=      5-min Rain = 0
KJU1 090915Z 00000KT 05/05 A3031 RMK A01 T00470047  RH  100%=      5-min Rain = 0
KJU1 090916Z 00000KT 05/05 A3031 RMK A01 T00480047  RH  100%=      5-min Rain = 0
KJU1 090917Z 00000KT 05/05 A3031 RMK A01 T00470047  RH  100%=      5-min Rain = 0
KJU1 090918Z 17001KT 05/05 A3031 RMK A01 T00470047  RH  100%=      5-min Rain = 0
KJU1 090919Z 16001KT 05/05 A3031 RMK A01 T00470047  RH  100%=      5-min Rain = 0
KJU1 090920Z 16001KT 05/05 A3031 RMK A01 T00470047  RH  100%=      5-min Rain = 0
KJU1 090921Z 16001KT 05/05 A3031 RMK A01 T00470047  RH  100%=      5-min Rain = 0
KJU1 090922Z 16001KT 05/05 A3031 RMK A01 T00470047  RH  100%=      5-min Rain = 0
KJU1 090923Z 16001KT 05/05 A303 RMK A01 T00470047  RH  100%=      5-min Rain = 0
KJU1 090924Z 16001KT 05/05 A303 RMK A01 T00470047  RH  100%=      5-min Rain = 0
KJU1 090925Z 15002KT 05/05 A303 RMK A01 T00470047  RH  100%=      5-min Rain = 0
KJU1 090926Z 16002KT 05/05 A303 RMK A01 T00470047  RH  100%=      5-min Rain = 0
KJU1 090927Z 15002KT 05/05 A303 RMK A01 T00470047  RH  100%=      5-min Rain = 0
KJU1 090928Z 15002KT 05/05 A303 RMK A01 T00470047  RH  100%=      5-min Rain = 0
KJU1 090929Z 15002KT 05/05 A303 RMK A01 T00470047  RH  100%=      5-min Rain = 0
KJU1 090930Z 15002KT 05/05 A303 RMK A01 T00470047  RH  100%=      5-min Rain = 0
KJU1 090931Z 15001KT 05/05 A303 RMK A01 T00470047  RH  100%=      5-min Rain = 0
KJU1 090932Z 16001KT 05/05 A303 RMK A01 T00470047  RH  100%=      5-min Rain = 0
KJU1 090933Z 16001KT 05/05 A303 RMK A01 T00470047  RH  100%=      5-min Rain = 0
KJU1 090934Z 18001KT 05/05 A303 RMK A01 T00470047  RH  100%=      5-min Rain = 0
KJU1 090935Z 18001KT 05/05 A303 RMK A01 T00470047  RH  100%=      5-min Rain = 0
KJU1 090936Z 21001KT 05/05 A303 RMK A01 T00480048  RH  100%=      5-min Rain = 0
KJU1 090937Z 21002KT 05/05 A303 RMK A01 T00470047  RH  100%=      5-min Rain = 0
KJU1 090938Z 22001KT 05/05 A303 RMK A01 T00470047  RH  100%=      5-min Rain = 0
KJU1 090939Z 22002KT 05/05 A303 RMK A01 T00470047  RH  100%=      5-min Rain = 0
KJU1 090940Z 23001KT 05/05 A303 RMK A01 T00470047  RH  100%=      5-min Rain = 0
KJU1 090941Z 23000KT 05/05 A303 RMK A01 T00460046  RH  100%=      5-min Rain = 0
KJU1 090942Z 24000KT 05/05 A303 RMK A01 T00460046  RH  100%=      5-min Rain = 0
KJU1 090943Z 24000KT 05/05 A303 RMK A01 T00460046  RH  100%=      5-min Rain = 0
KJU1 090944Z 00000KT 05/05 A303 RMK A01 T00460046  RH  100%=      5-min Rain = 0
KJU1 090945Z 00000KT 05/05 A303 RMK A01 T00460046  RH  100%=      5-min Rain = 0
KJU1 090946Z 00000KT 05/05 A303 RMK A01 T00460046  RH  100%=      5-min Rain = 0
KJU1 090947Z 00000KT 05/05 A303 RMK A01 T00460046  RH  100%=      5-min Rain = 0
KJU1 090948Z 00000KT 05/05 A303 RMK A01 T00460046  RH  100%=      5-min Rain = 0
KJU1 090949Z 00000KT 05/05 A303 RMK A01 T00460046  RH  100%=      5-min Rain = 0
KJU1 090950Z 11000KT 05/05 A303 RMK A01 T00460046  RH  100%=      5-min Rain = 0
KJU1 090951Z 11001KT 05/05 A303 RMK A01 T00470047  RH  100%=      5-min Rain = 0
KJU1 090952Z 12001KT 05/05 A3029 RMK A01 T00460046  RH  100%=      5-min Rain = 0
KJU1 090953Z 14001KT 05/05 A3029 RMK A01 T00460046  RH  100%=      5-min Rain = 0
KJU1 090954Z 14001KT 05/05 A3029 RMK A01 T00460046  RH  100%=      5-min Rain = 0
KJU1 090955Z 15000KT 05/05 A3029 RMK A01 T00470047  RH  100%=      5-min Rain = 0
KJU1 090956Z 15000KT 05/05 A3029 RMK A01 T00460046  RH  100%=      5-min Rain = 0
KJU1 090957Z 16001KT 05/05 A3029 RMK A01 T00460046  RH  100%=      5-min Rain = 0
KJU1 090958Z 17000KT 05/05 A3029 RMK A01 T00460046  RH  100%=      5-min Rain = 0
KJU1 090959Z 18001KT 05/05 A3029 RMK A01 T00460046  RH  100%=      5-min Rain = 0
KJU1 091000Z 19001KT 05/05 A3029 RMK A01 T00460046  RH  100%=      5-min Rain = 0
KJU1 091001Z 19001KT 05/05 A3029 RMK A01 T00460046  RH  100%=      5-min Rain = 0
KJU1 091002Z 20001KT 05/05 A3029 RMK A01 T00460046  RH  100%=      5-min Rain = 0
KJU1 091003Z 21001KT 05/05 A3029 RMK A01 T00460046  RH  100%=      5-min Rain = 0
KJU1 091004Z 22001KT 05/05 A3029 RMK A01 T00460046  RH  100%=      5-min Rain = 0
KJU1 091005Z 24001KT 05/05 A3029 RMK A01 T00460046  RH  100%=      5-min Rain = 0
KJU1 091006Z 25001KT 05/05 A3029 RMK A01 T00460046  RH  100%=      5-min Rain = 0
KJU1 091007Z 26001KT 05/05 A3029 RMK A01 T00460046  RH  100%=      5-min Rain = 0
KJU1 091008Z 26001KT 05/05 A3029 RMK A01 T00460046  RH  100%=      5-min Rain = 0
KJU1 091009Z 25001KT 05/05 A3029 RMK A01 T00460046  RH  100%=      5-min Rain = 0
KJU1 091010Z 26001KT 05/05 A3029 RMK A01 T00460046  RH  100%=      5-min Rain = 0
KJU1 091011Z 26001KT 05/05 A3029 RMK A01 T00460046  RH  100%=      5-min Rain = 0
KJU1 091012Z 28000KT 05/05 A3029 RMK A01 T00460046  RH  100%=      5-min Rain = 0
KJU1 091013Z 00000KT 05/05 A3029 RMK A01 T00460046  RH  100%=      5-min Rain = 0
KJU1 091014Z 00000KT 05/05 A3029 RMK A01 T00460046  RH  100%=      5-min Rain = 0
KJU1 091015Z 00000KT 05/05 A3029 RMK A01 T00460046  RH  100%=      5-min Rain = 0
KJU1 091016Z 30000KT 05/05 A3029 RMK A01 T00460046  RH  100%=      5-min Rain = 0
KJU1 091017Z 30001KT 05/05 A3029 RMK A01 T00460046  RH  100%=      5-min Rain = 0
KJU1 091018Z 28001KT 05/05 A3029 RMK A01 T00460046  RH  100%=      5-min Rain = 0
KJU1 091019Z 26001KT 05/05 A3029 RMK A01 T00460046  RH  100%=      5-min Rain = 0
KJU1 091020Z 24001KT 05/05 A3029 RMK A01 T00460046  RH  100%=      5-min Rain = 0
KJU1 091021Z 00000KT 05/05 A3029 RMK A01 T00460046  RH  100%=      5-min Rain = 0
KJU1 091022Z 00000KT 05/05 A3029 RMK A01 T00460046  RH  100%=      5-min Rain = 0
KJU1 091023Z 00000KT 05/05 A3029 RMK A01 T00450045  RH  100%=      5-min Rain = 0
KJU1 091024Z 00000KT 05/05 A3029 RMK A01 T00450045  RH  100%=      5-min Rain = 0
KJU1 091025Z 00000KT 05/05 A3029 RMK A01 T00460046  RH  100%=      5-min Rain = 0
KJU1 091026Z 00000KT 05/05 A3029 RMK A01 T00460046  RH  100%=      5-min Rain = 0
KJU1 091027Z 00000KT 05/05 A3029 RMK A01 T00450045  RH  100%=      5-min Rain = 0
KJU1 091028Z 00000KT 05/05 A3029 RMK A01 T00450045  RH  100%=      5-min Rain = 0
KJU1 091029Z 00000KT 05/05 A3029 RMK A01 T00450045  RH  100%=      5-min Rain = 0
KJU1 091030Z 00000KT 05/05 A3029 RMK A01 T00450045  RH  100%=      5-min Rain = 0
KJU1 091031Z 00000KT 05/05 A3029 RMK A01 T00450045  RH  100%=      5-min Rain = 0
KJU1 091032Z 00000KT 05/05 A3029 RMK A01 T00450045  RH  100%=      5-min Rain = 0
KJU1 091033Z 00000KT 05/05 A3029 RMK A01 T00450045  RH  100%=      5-min Rain = 0
KJU1 091034Z 00000KT 05/05 A3029 RMK A01 T00450045  RH  100%=      5-min Rain = 0
KJU1 091035Z 00000KT 05/05 A3029 RMK A01 T00450045  RH  100%=      5-min Rain = 0
KJU1 091036Z 00000KT 05/05 A3029 RMK A01 T00450045  RH  100%=      5-min Rain = 0
KJU1 091037Z 22000KT 05/05 A3029 RMK A01 T00450045  RH  100%=      5-min Rain = 0
KJU1 091038Z 22000KT 05/05 A3029 RMK A01 T00450045  RH  100%=      5-min Rain = 0
KJU1 091039Z 00000KT 05/05 A3029 RMK A01 T00450045  RH  100%=      5-min Rain = 0
KJU1 091040Z 00000KT 05/05 A3029 RMK A01 T00450045  RH  100%=      5-min Rain = 0
KJU1 091041Z 00000KT 05/05 A3029 RMK A01 T00450045  RH  100%=      5-min Rain = 0
KJU1 091042Z 00000KT 05/05 A3029 RMK A01 T00450045  RH  100%=      5-min Rain = 0
KJU1 091043Z 24000KT 05/05 A3029 RMK A01 T00450045  RH  100%=      5-min Rain = 0
KJU1 091044Z 25001KT 04/04 A3029 RMK A01 T00440044  RH  100%=      5-min Rain = 0
KJU1 091045Z 25001KT 04/04 A3029 RMK A01 T00440044  RH  100%=      5-min Rain = 0
KJU1 091046Z 24001KT 04/04 A3029 RMK A01 T00440044  RH  100%=      5-min Rain = 0
KJU1 091047Z 24000KT 05/05 A3029 RMK A01 T00450045  RH  100%=      5-min Rain = 0
KJU1 091048Z 00000KT 04/04 A3029 RMK A01 T00440044  RH  100%=      5-min Rain = 0
KJU1 091049Z 00000KT 04/04 A3029 RMK A01 T00440044  RH  100%=      5-min Rain = 0
KJU1 091050Z 21001KT 04/04 A3029 RMK A01 T00440044  RH  100%=      5-min Rain = 0
KJU1 091051Z 22001KT 04/04 A3029 RMK A01 T00440044  RH  100%=      5-min Rain = 0
KJU1 091052Z 23000KT 04/04 A3029 RMK A01 T00440044  RH  100%=      5-min Rain = 0
KJU1 091053Z 22001KT 04/04 A303 RMK A01 T00440044  RH  100%=      5-min Rain = 0
KJU1 091054Z 22000KT 04/04 A303 RMK A01 T00440044  RH  100%=      5-min Rain = 0
KJU1 091055Z 00000KT 04/04 A303 RMK A01 T00440044  RH  100%=      5-min Rain = 0
KJU1 091056Z 00000KT 04/04 A303 RMK A01 T00440044  RH  100%=      5-min Rain = 0
KJU1 091057Z 07000KT 04/04 A3029 RMK A01 T00440044  RH  100%=      5-min Rain = 0
KJU1 091058Z 08001KT 04/04 A3029 RMK A01 T00440044  RH  100%=      5-min Rain = 0
KJU1 091059Z 10001KT 04/04 A3029 RMK A01 T00440044  RH  100%=      5-min Rain = 0
KJU1 091100Z 14001KT 04/04 A3029 RMK A01 T00440044  RH  100%=      5-min Rain = 0
KJU1 091101Z 15001KT 04/04 A3029 RMK A01 T00440044  RH  100%=      5-min Rain = 0
KJU1 091102Z 15001KT 04/04 A3029 RMK A01 T00440044  RH  100%=      5-min Rain = 0
KJU1 091103Z 00000KT 04/04 A3029 RMK A01 T00440044  RH  100%=      5-min Rain = 0
KJU1 091104Z 21001KT 04/04 A3029 RMK A01 T00430043  RH  100%=      5-min Rain = 0
KJU1 091105Z 22002KT 04/04 A303 RMK A01 T00430043  RH  100%=      5-min Rain = 0
KJU1 091106Z 23002KT 04/04 A303 RMK A01 T00430043  RH  100%=      5-min Rain = 0
KJU1 091107Z 23002KT 04/04 A303 RMK A01 T00430043  RH  100%=      5-min Rain = 0
KJU1 091108Z 22002KT 04/04 A303 RMK A01 T00430043  RH  100%=      5-min Rain = 0
KJU1 091109Z 21002KT 04/04 A303 RMK A01 T00430043  RH  100%=      5-min Rain = 0
KJU1 091110Z 21002KT 04/04 A303 RMK A01 T00430043  RH  100%=      5-min Rain = 0
KJU1 091111Z 20001KT 04/04 A303 RMK A01 T00430043  RH  100%=      5-min Rain = 0
KJU1 091112Z 20001KT 04/04 A303 RMK A01 T00430043  RH  100%=      5-min Rain = 0
KJU1 091113Z 20002KT 04/04 A303 RMK A01 T00430043  RH  100%=      5-min Rain = 0
KJU1 091114Z 21002KT 04/04 A303 RMK A01 T00420042  RH  100%=      5-min Rain = 0
KJU1 091115Z 21002KT 04/04 A303 RMK A01 T00420042  RH  100%=      5-min Rain = 0
KJU1 091116Z 21002KT 04/04 A303 RMK A01 T00420042  RH  100%=      5-min Rain = 0
KJU1 091117Z 22002KT 04/04 A303 RMK A01 T00420042  RH  100%=      5-min Rain = 0
KJU1 091118Z 22002KT 04/04 A303 RMK A01 T00420042  RH  100%=      5-min Rain = 0
KJU1 091119Z 20002KT 04/04 A303 RMK A01 T00420042  RH  100%=      5-min Rain = 0
KJU1 091120Z 19002KT 04/04 A303 RMK A01 T00420042  RH  100%=      5-min Rain = 0
KJU1 091121Z 18002KT 04/04 A303 RMK A01 T00420042  RH  100%=      5-min Rain = 0
KJU1 091122Z 19002KT 04/04 A303 RMK A01 T00420042  RH  100%=      5-min Rain = 0
KJU1 091123Z 19002KT 04/04 A303 RMK A01 T00410041  RH  100%=      5-min Rain = 0
KJU1 091124Z 18002KT 04/04 A303 RMK A01 T00410041  RH  100%=      5-min Rain = 0
KJU1 091125Z 19002KT 04/04 A303 RMK A01 T00410041  RH  100%=      5-min Rain = 0
KJU1 091126Z 20003KT 04/04 A303 RMK A01 T00410041  RH  100%=      5-min Rain = 0
KJU1 091127Z 19002KT 04/04 A303 RMK A01 T00410041  RH  100%=      5-min Rain = 0
KJU1 091128Z 20002KT 04/04 A303 RMK A01 T00420042  RH  100%=      5-min Rain = 0
KJU1 091129Z 19002KT 04/04 A303 RMK A01 T00410041  RH  100%=      5-min Rain = 0
KJU1 091130Z 18002KT 04/04 A303 RMK A01 T00410041  RH  100%=      5-min Rain = 0
KJU1 091131Z 18002KT 04/04 A303 RMK A01 T00410041  RH  100%=      5-min Rain = 0
KJU1 091132Z 18002KT 04/04 A303 RMK A01 T00410041  RH  100%=      5-min Rain = 0
KJU1 091133Z 17003KT 04/04 A303 RMK A01 T00410041  RH  100%=      5-min Rain = 0
KJU1 091134Z 17003KT 04/04 A303 RMK A01 T00400040  RH  100%=      5-min Rain = 0
KJU1 091135Z 18004KT 04/04 A303 RMK A01 T00400040  RH  100%=      5-min Rain = 0
KJU1 091136Z 18004KT 04/04 A303 RMK A01 T00390039  RH  100%=      5-min Rain = 0
KJU1 091137Z 18004KT 04/04 A303 RMK A01 T00390039  RH  100%=      5-min Rain = 0
KJU1 091138Z 18004KT 04/04 A303 RMK A01 T00390039  RH  100%=      5-min Rain = 0
KJU1 091139Z 18003KT 04/04 A3029 RMK A01 T00390039  RH  100%=      5-min Rain = 0
KJU1 091140Z 18003KT 04/04 A3029 RMK A01 T00390039  RH  100%=      5-min Rain = 0
KJU1 091141Z 19002KT 04/04 A3029 RMK A01 T00390039  RH  100%=      5-min Rain = 0
KJU1 091142Z 19002KT 04/04 A3029 RMK A01 T00390039  RH  100%=      5-min Rain = 0
KJU1 091143Z 19002KT 04/04 A3029 RMK A01 T00390039  RH  100%=      5-min Rain = 0
KJU1 091144Z 20002KT 04/04 A3029 RMK A01 T00390039  RH  100%=      5-min Rain = 0
KJU1 091145Z 20003KT 04/04 A303 RMK A01 T00390039  RH  100%=      5-min Rain = 0
KJU1 091146Z 19002KT 04/04 A303 RMK A01 T00390039  RH  100%=      5-min Rain = 0
KJU1 091147Z 19003KT 04/04 A303 RMK A01 T00400040  RH  100%=      5-min Rain = 0
KJU1 091148Z 20003KT 04/04 A303 RMK A01 T00400040  RH  100%=      5-min Rain = 0
KJU1 091149Z 19003KT 04/04 A303 RMK A01 T00400040  RH  100%=      5-min Rain = 0
KJU1 091150Z 20003KT 04/04 A303 RMK A01 T00400040  RH  100%=      5-min Rain = 0
KJU1 091151Z 19003KT 04/04 A303 RMK A01 T00400040  RH  100%=      5-min Rain = 0
KJU1 091152Z 19003KT 04/04 A303 RMK A01 T00400040  RH  100%=      5-min Rain = 0
KJU1 091153Z 19003KT 04/04 A303 RMK A01 T00400040  RH  100%=      5-min Rain = 0
KJU1 091154Z 20002KT 04/04 A303 RMK A01 T00400040  RH  100%=      5-min Rain = 0
KJU1 091155Z 19002KT 04/04 A303 RMK A01 T00400040  RH  100%=      5-min Rain = 0
KJU1 091156Z 19002KT 04/04 A303 RMK A01 T00400040  RH  100%=      5-min Rain = 0
KJU1 091157Z 18001KT 04/04 A303 RMK A01 T00400040  RH  100%=      5-min Rain = 0
KJU1 091158Z 17003KT 04/04 A303 RMK A01 T00400040  RH  100%=      5-min Rain = 0
KJU1 091159Z 19003KT 04/04 A303 RMK A01 T00400040  RH  100%=      5-min Rain = 0
KJU1 091200Z 19002KT 04/04 A303 RMK A01 T00400039  RH  100%=      5-min Rain = 0
KJU1 091201Z 19001KT 04/04 A303 RMK A01 T00390039  RH  100%=      5-min Rain = 0
KJU1 091202Z 21001KT 04/04 A303 RMK A01 T00390039  RH  100%=      5-min Rain = 0
KJU1 091203Z 18001KT 04/04 A303 RMK A01 T00400040  RH  100%=      5-min Rain = 0
KJU1 091204Z 18001KT 04/04 A303 RMK A01 T00390039  RH  100%=      5-min Rain = 0
KJU1 091205Z 18002KT 04/04 A303 RMK A01 T00400039  RH  100%=      5-min Rain = 0
KJU1 091206Z 18002KT 04/04 A303 RMK A01 T00390039  RH  100%=      5-min Rain = 0
KJU1 091207Z 19002KT 04/04 A303 RMK A01 T00390039  RH  100%=      5-min Rain = 0
KJU1 091208Z 19002KT 04/04 A303 RMK A01 T00390039  RH  100%=      5-min Rain = 0
KJU1 091209Z 18003KT 04/04 A303 RMK A01 T00390039  RH  100%=      5-min Rain = 0
KJU1 091210Z 19002KT 04/04 A303 RMK A01 T00390039  RH  100%=      5-min Rain = 0
KJU1 091211Z 19002KT 04/04 A303 RMK A01 T00380038  RH  100%=      5-min Rain = 0
KJU1 091212Z 20002KT 04/04 A303 RMK A01 T00390039  RH  100%=      5-min Rain = 0
KJU1 091213Z 20002KT 04/04 A303 RMK A01 T00390038  RH  100%=      5-min Rain = 0
KJU1 091214Z 19001KT 04/04 A303 RMK A01 T00390039  RH  100%=      5-min Rain = 0
KJU1 091215Z 18002KT 04/04 A303 RMK A01 T00380038  RH  100%=      5-min Rain = 0
KJU1 091216Z 19002KT 04/04 A303 RMK A01 T00390039  RH  100%=      5-min Rain = 0
KJU1 091217Z 17002KT 04/04 A303 RMK A01 T00390039  RH  100%=      5-min Rain = 0
KJU1 091218Z 18002KT 04/04 A303 RMK A01 T00390039  RH  100%=      5-min Rain = 0
KJU1 091219Z 17002KT 04/04 A303 RMK A01 T00390039  RH  100%=      5-min Rain = 0
KJU1 091220Z 17002KT 04/04 A303 RMK A01 T00380038  RH  100%=      5-min Rain = 0
KJU1 091221Z 18002KT 04/04 A303 RMK A01 T00390039  RH  100%=      5-min Rain = 0
KJU1 091222Z 18002KT 04/04 A303 RMK A01 T00390039  RH  100%=      5-min Rain = 0
KJU1 091223Z 18002KT 04/04 A303 RMK A01 T00390038  RH  100%=      5-min Rain = 0
KJU1 091224Z 19002KT 04/04 A303 RMK A01 T00380038  RH  100%=      5-min Rain = 0
KJU1 091225Z 19002KT 04/04 A303 RMK A01 T00380038  RH  100%=      5-min Rain = 0
KJU1 091226Z 19002KT 04/04 A303 RMK A01 T00380038  RH  100%=      5-min Rain = 0
KJU1 091227Z 18002KT 04/04 A303 RMK A01 T00380038  RH  100%=      5-min Rain = 0
KJU1 091228Z 18002KT 04/04 A303 RMK A01 T00380038  RH  100%=      5-min Rain = 0
KJU1 091229Z 18003KT 04/04 A303 RMK A01 T00380038  RH  100%=      5-min Rain = 0
KJU1 091230Z 18003KT 04/04 A303 RMK A01 T00380038  RH  100%=      5-min Rain = 0
KJU1 091231Z 19003KT 04/04 A303 RMK A01 T00380038  RH  100%=      5-min Rain = 0
KJU1 091232Z 18003KT 04/04 A303 RMK A01 T00380037  RH  100%=      5-min Rain = 0
KJU1 091233Z 19004KT 04/04 A303 RMK A01 T00380038  RH  100%=      5-min Rain = 0
KJU1 091234Z 19003KT 04/04 A303 RMK A01 T00380038  RH  100%=      5-min Rain = 0
KJU1 091235Z 19003KT 04/04 A303 RMK A01 T00380038  RH  100%=      5-min Rain = 0
KJU1 091236Z 19003KT 04/04 A303 RMK A01 T00380038  RH  100%=      5-min Rain = 0
KJU1 091237Z 19003KT 04/04 A303 RMK A01 T00380038  RH  100%=      5-min Rain = 0
KJU1 091238Z 19003KT 04/04 A303 RMK A01 T00380038  RH  100%=      5-min Rain = 0
KJU1 091239Z 19003KT 04/04 A303 RMK A01 T00380038  RH  100%=      5-min Rain = 0
KJU1 091240Z 20002KT 04/04 A303 RMK A01 T00380038  RH  100%=      5-min Rain = 0
KJU1 091241Z 19003KT 04/04 A303 RMK A01 T00380038  RH  100%=      5-min Rain = 0
KJU1 091242Z 18002KT 04/04 A303 RMK A01 T00380038  RH  100%=      5-min Rain = 0
KJU1 091243Z 19002KT 04/04 A303 RMK A01 T00380038  RH  100%=      5-min Rain = 0
KJU1 091244Z 18002KT 04/04 A303 RMK A01 T00380038  RH  100%=      5-min Rain = 0
KJU1 091245Z 19002KT 04/04 A3031 RMK A01 T00380038  RH  100%=      5-min Rain = 0
KJU1 091246Z 18002KT 04/04 A3031 RMK A01 T00380038  RH  100%=      5-min Rain = 0
KJU1 091247Z 19002KT 04/04 A3031 RMK A01 T00380038  RH  100%=      5-min Rain = 0
KJU1 091248Z 19002KT 04/04 A3031 RMK A01 T00380038  RH  100%=      5-min Rain = 0
KJU1 091249Z 18002KT 04/04 A3031 RMK A01 T00380038  RH  100%=      5-min Rain = 0
KJU1 091250Z 19002KT 04/04 A3031 RMK A01 T00380038  RH  100%=      5-min Rain = 0
KJU1 091251Z 18002KT 04/04 A3031 RMK A01 T00380038  RH  100%=      5-min Rain = 0
KJU1 091252Z 18001KT 04/04 A3031 RMK A01 T00380038  RH  100%=      5-min Rain = 0
KJU1 091253Z 19002KT 04/04 A3031 RMK A01 T00380038  RH  100%=      5-min Rain = 0
KJU1 091254Z 19002KT 04/04 A3031 RMK A01 T00380038  RH  100%=      5-min Rain = 0
KJU1 091255Z 20001KT 04/04 A3031 RMK A01 T00380038  RH  100%=      5-min Rain = 0
KJU1 091256Z 19002KT 04/04 A3031 RMK A01 T00380038  RH  100%=      5-min Rain = 0
KJU1 091257Z 20002KT 04/04 A3031 RMK A01 T00380038  RH  100%=      5-min Rain = 0
KJU1 091258Z 18002KT 04/04 A3031 RMK A01 T00380038  RH  100%=      5-min Rain = 0
KJU1 091259Z 17001KT 04/04 A3031 RMK A01 T00380038  RH  100%=      5-min Rain = 0
KJU1 091300Z 16002KT 04/04 A3031 RMK A01 T00380038  RH  100%=      5-min Rain = 0
KJU1 091301Z 15002KT 04/04 A3031 RMK A01 T00380038  RH  100%=      5-min Rain = 0
KJU1 091302Z 15002KT 04/04 A3031 RMK A01 T00380038  RH  100%=      5-min Rain = 0
KJU1 091303Z 15002KT 04/04 A3031 RMK A01 T00370037  RH  100%=      5-min Rain = 0
KJU1 091304Z 16002KT 04/04 A3031 RMK A01 T00370037  RH  100%=      5-min Rain = 0
KJU1 091305Z 15002KT 04/04 A3031 RMK A01 T00370037  RH  100%=      5-min Rain = 0
KJU1 091306Z 16001KT 04/04 A3031 RMK A01 T00370037  RH  100%=      5-min Rain = 0
KJU1 091307Z 17002KT 04/04 A3031 RMK A01 T00370037  RH  100%=      5-min Rain = 0
KJU1 091308Z 17002KT 04/04 A3031 RMK A01 T00370037  RH  100%=      5-min Rain = 0
KJU1 091309Z 18001KT 04/04 A3031 RMK A01 T00370037  RH  100%=      5-min Rain = 0
KJU1 091310Z 17002KT 04/04 A3031 RMK A01 T00370037  RH  100%=      5-min Rain = 0
KJU1 091311Z 18001KT 04/04 A3031 RMK A01 T00370037  RH  100%=      5-min Rain = 0
KJU1 091312Z 19001KT 04/04 A3031 RMK A01 T00370037  RH  100%=      5-min Rain = 0
KJU1 091313Z 18001KT 04/04 A3031 RMK A01 T00370037  RH  100%=      5-min Rain = 0
KJU1 091314Z 17001KT 04/04 A3031 RMK A01 T00370037  RH  100%=      5-min Rain = 0
KJU1 091315Z 15001KT 04/04 A3031 RMK A01 T00370037  RH  100%=      5-min Rain = 0
KJU1 091316Z 15001KT 04/04 A3031 RMK A01 T00370037  RH  100%=      5-min Rain = 0
KJU1 091317Z 14001KT 04/04 A3031 RMK A01 T00370037  RH  100%=      5-min Rain = 0
KJU1 091318Z 12001KT 04/04 A3031 RMK A01 T00370037  RH  100%=      5-min Rain = 0
KJU1 091319Z 12001KT 04/04 A3031 RMK A01 T00370037  RH  100%=      5-min Rain = 0
KJU1 091320Z 12001KT 04/04 A3031 RMK A01 T00370037  RH  100%=      5-min Rain = 0
KJU1 091321Z 12001KT 04/04 A3031 RMK A01 T00370037  RH  100%=      5-min Rain = 0
KJU1 091322Z 12001KT 04/04 A3031 RMK A01 T00370037  RH  100%=      5-min Rain = 0
KJU1 091323Z 12001KT 04/04 A3031 RMK A01 T00370037  RH  100%=      5-min Rain = 0
KJU1 091324Z 11001KT 04/04 A3031 RMK A01 T00360036  RH  100%=      5-min Rain = 0
KJU1 091325Z 11001KT 04/04 A3031 RMK A01 T00360036  RH  100%=      5-min Rain = 0
KJU1 091326Z 12001KT 04/04 A3031 RMK A01 T00360036  RH  100%=      5-min Rain = 0
KJU1 091327Z 11001KT 04/04 A3031 RMK A01 T00360036  RH  100%=      5-min Rain = 0
KJU1 091328Z 10001KT 04/04 A3031 RMK A01 T00360036  RH  100%=      5-min Rain = 0
KJU1 091329Z 10001KT 04/04 A3031 RMK A01 T00360036  RH  100%=      5-min Rain = 0
KJU1 091330Z 12001KT 04/04 A3031 RMK A01 T00360036  RH  100%=      5-min Rain = 0
KJU1 091331Z 12001KT 04/04 A3031 RMK A01 T00360036  RH  100%=      5-min Rain = 0
KJU1 091332Z 13001KT 04/04 A3031 RMK A01 T00360036  RH  100%=      5-min Rain = 0
KJU1 091333Z 14002KT 04/04 A3031 RMK A01 T00360036  RH  100%=      5-min Rain = 0
KJU1 091334Z 16002KT 04/04 A3031 RMK A01 T00370036  RH  100%=      5-min Rain = 0
KJU1 091335Z 16002KT 04/04 A3031 RMK A01 T00370037  RH  100%=      5-min Rain = 0
KJU1 091336Z 17002KT 04/04 A3031 RMK A01 T00370037  RH  100%=      5-min Rain = 0
KJU1 091337Z 17001KT 04/04 A3031 RMK A01 T00380038  RH  100%=      5-min Rain = 0
KJU1 091338Z 18001KT 04/04 A3031 RMK A01 T00380038  RH  100%=      5-min Rain = 0
KJU1 091339Z 18002KT 04/04 A3031 RMK A01 T00380038  RH  100%=      5-min Rain = 0
KJU1 091340Z 18001KT 04/04 A3031 RMK A01 T00380038  RH  100%=      5-min Rain = 0
KJU1 091341Z 18001KT 04/04 A3031 RMK A01 T00380038  RH  100%=      5-min Rain = 0
KJU1 091342Z 18002KT 04/04 A3031 RMK A01 T00380038  RH  100%=      5-min Rain = 0
KJU1 091343Z 18002KT 04/04 A3031 RMK A01 T00390039  RH  100%=      5-min Rain = 0
KJU1 091344Z 18002KT 04/04 A3031 RMK A01 T00390039  RH  100%=      5-min Rain = 0
KJU1 091345Z 18002KT 04/04 A3031 RMK A01 T00390039  RH  100%=      5-min Rain = 0
KJU1 091346Z 18002KT 04/04 A3031 RMK A01 T00390039  RH  100%=      5-min Rain = 0
KJU1 091347Z 19000KT 04/04 A3031 RMK A01 T00390039  RH  100%=      5-min Rain = 0
KJU1 091348Z 00000KT 04/04 A3031 RMK A01 T00400040  RH  100%=      5-min Rain = 0
KJU1 091349Z 13000KT 04/04 A3031 RMK A01 T00410041  RH  100%=      5-min Rain = 0
KJU1 091350Z 10000KT 04/04 A3031 RMK A01 T00420042  RH  100%=      5-min Rain = 0
KJU1 091351Z 08001KT 04/04 A3031 RMK A01 T00430043  RH  100%=      5-min Rain = 0.01
KJU1 091352Z 07000KT 04/04 A3031 RMK A01 T00430043  RH  100%=      5-min Rain = 0
KJU1 091353Z 05000KT 04/04 A3031 RMK A01 T00430043  RH  100%=      5-min Rain = 0
KJU1 091354Z 04000KT 04/04 A3031 RMK A01 T00440044  RH  100%=      5-min Rain = 0
KJU1 091355Z 04001KT 04/04 A3031 RMK A01 T00440044  RH  100%=      5-min Rain = 0
KJU1 091356Z 03001KT 05/05 A3031 RMK A01 T00450045  RH  100%=      5-min Rain = 0
KJU1 091357Z 02001KT 05/05 A3031 RMK A01 T00450045  RH  100%=      5-min Rain = 0
KJU1 091358Z 02001KT 05/05 A3031 RMK A01 T00450045  RH  100%=      5-min Rain = 0
KJU1 091359Z 04001KT 04/04 A3031 RMK A01 T00440044  RH  100%=      5-min Rain = 0
KJU1 091400Z 04001KT 04/04 A3031 RMK A01 T00430043  RH  100%=      5-min Rain = 0
KJU1 091401Z 03002KT 04/04 A3031 RMK A01 T00430043  RH  100%=      5-min Rain = 0
KJU1 091402Z 03001KT 04/04 A3031 RMK A01 T00430043  RH  100%=      5-min Rain = 0
KJU1 091403Z 02001KT 04/04 A3031 RMK A01 T00430043  RH  100%=      5-min Rain = 0
KJU1 091404Z 00001KT 04/04 A3031 RMK A01 T00440044  RH  100%=      5-min Rain = 0
KJU1 091405Z 02001KT 04/04 A3031 RMK A01 T00440044  RH  100%=      5-min Rain = 0
KJU1 091406Z 02001KT 04/04 A3032 RMK A01 T00440044  RH  100%=      5-min Rain = 0
KJU1 091407Z 01000KT 04/04 A3032 RMK A01 T00440044  RH  100%=      5-min Rain = 0
KJU1 091408Z 03001KT 05/05 A3032 RMK A01 T00450045  RH  100%=      5-min Rain = 0
KJU1 091409Z 02000KT 05/05 A3032 RMK A01 T00450045  RH  100%=      5-min Rain = 0
KJU1 091410Z 00000KT 05/05 A3032 RMK A01 T00450045  RH  100%=      5-min Rain = 0
KJU1 091411Z 03001KT 05/05 A3032 RMK A01 T00450045  RH  100%=      5-min Rain = 0
KJU1 091412Z 03000KT 05/05 A3032 RMK A01 T00450045  RH  100%=      5-min Rain = 0
KJU1 091413Z 00000KT 05/05 A3032 RMK A01 T00450045  RH  100%=      5-min Rain = 0
KJU1 091414Z 28000KT 05/05 A3032 RMK A01 T00450045  RH  100%=      5-min Rain = 0
KJU1 091415Z 28000KT 05/05 A3032 RMK A01 T00450045  RH  100%=      5-min Rain = 0
KJU1 091416Z 00000KT 05/05 A3032 RMK A01 T00450045  RH  100%=      5-min Rain = 0
KJU1 091417Z 26000KT 05/05 A3032 RMK A01 T00450045  RH  100%=      5-min Rain = 0
KJU1 091418Z 25000KT 05/05 A3032 RMK A01 T00450045  RH  100%=      5-min Rain = 0
KJU1 091419Z 21000KT 05/05 A3032 RMK A01 T00460046  RH  100%=      5-min Rain = 0
KJU1 091420Z 00000KT 05/05 A3032 RMK A01 T00460046  RH  100%=      5-min Rain = 0
KJU1 091421Z 00000KT 05/05 A3032 RMK A01 T00470047  RH  100%=      5-min Rain = 0
KJU1 091422Z 00000KT 05/05 A3032 RMK A01 T00480048  RH  100%=      5-min Rain = 0
KJU1 091423Z 00000KT 05/05 A3032 RMK A01 T00490049  RH  100%=      5-min Rain = 0
KJU1 091424Z 27000KT 05/05 A3032 RMK A01 T00490049  RH  100%=      5-min Rain = 0
KJU1 091425Z 28000KT 05/05 A3032 RMK A01 T00480048  RH  100%=      5-min Rain = 0
KJU1 091426Z 00000KT 05/05 A3032 RMK A01 T00480048  RH  100%=      5-min Rain = 0
KJU1 091427Z 29000KT 05/05 A3032 RMK A01 T00480048  RH  100%=      5-min Rain = 0
KJU1 091428Z 29000KT 05/05 A3032 RMK A01 T00490049  RH  100%=      5-min Rain = 0
KJU1 091429Z 30001KT 05/05 A3032 RMK A01 T00490049  RH  100%=      5-min Rain = 0
KJU1 091430Z 30000KT 05/05 A3032 RMK A01 T00500050  RH  100%=      5-min Rain = 0
KJU1 091431Z 00000KT 05/05 A3032 RMK A01 T00490049  RH  100%=      5-min Rain = 0
KJU1 091432Z 00000KT 05/05 A3032 RMK A01 T00500050  RH  100%=      5-min Rain = 0
KJU1 091433Z 00000KT 05/05 A3032 RMK A01 T00500050  RH  100%=      5-min Rain = 0
KJU1 091434Z 00000KT 05/05 A3032 RMK A01 T00500050  RH  100%=      5-min Rain = 0
KJU1 091435Z 00000KT 05/05 A3032 RMK A01 T00500050  RH  100%=      5-min Rain = 0
KJU1 091436Z 00000KT 05/05 A3032 RMK A01 T00500050  RH  100%=      5-min Rain = 0
KJU1 091437Z 00000KT 05/05 A3032 RMK A01 T00500050  RH  100%=      5-min Rain = 0
KJU1 091438Z 00000KT 05/05 A3032 RMK A01 T00520052  RH  100%=      5-min Rain = 0
KJU1 091439Z 06000KT 05/05 A3032 RMK A01 T00520052  RH  100%=      5-min Rain = 0
KJU1 091440Z 12000KT 05/05 A3032 RMK A01 T00520052  RH  100%=      5-min Rain = 0
KJU1 091441Z 13000KT 05/05 A3032 RMK A01 T00520052  RH  100%=      5-min Rain = 0
KJU1 091442Z 12001KT 05/05 A3032 RMK A01 T00530053  RH  100%=      5-min Rain = 0
KJU1 091443Z 11001KT 05/05 A3032 RMK A01 T00530053  RH  100%=      5-min Rain = 0
KJU1 091444Z 00000KT 05/05 A3032 RMK A01 T00530053  RH  100%=      5-min Rain = 0
KJU1 091445Z 00000KT 05/05 A3032 RMK A01 T00530053  RH  100%=      5-min Rain = 0
KJU1 091446Z 00000KT 05/05 A3032 RMK A01 T00530053  RH  100%=      5-min Rain = 0
KJU1 091447Z 00000KT 06/06 A3032 RMK A01 T00550055  RH  100%=      5-min Rain = 0
KJU1 091448Z 00000KT 06/06 A3032 RMK A01 T00560056  RH  100%=      5-min Rain = 0
KJU1 091449Z 00000KT 06/06 A3032 RMK A01 T00560056  RH  100%=      5-min Rain = 0
KJU1 091450Z 00000KT 06/06 A3032 RMK A01 T00560056  RH  100%=      5-min Rain = 0
KJU1 091451Z 00000KT 06/06 A3032 RMK A01 T00560056  RH  100%=      5-min Rain = 0
KJU1 091452Z 00000KT 06/06 A3032 RMK A01 T00570057  RH  100%=      5-min Rain = 0
KJU1 091453Z 00000KT 06/06 A3032 RMK A01 T00580058  RH  100%=      5-min Rain = 0
KJU1 091454Z 00000KT 06/06 A3032 RMK A01 T00580058  RH  100%=      5-min Rain = 0
KJU1 091455Z 00000KT 06/06 A3032 RMK A01 T00580058  RH  100%=      5-min Rain = 0
KJU1 091456Z 00000KT 06/06 A3032 RMK A01 T00590059  RH  100%=      5-min Rain = 0
KJU1 091457Z 00000KT 06/06 A3032 RMK A01 T00590060  RH  100%=      5-min Rain = 0
KJU1 091458Z 00000KT 06/06 A3032 RMK A01 T00600060  RH  100%=      5-min Rain = 0
KJU1 091459Z 00000KT 06/06 A3032 RMK A01 T00600060  RH  100%=      5-min Rain = 0
KJU1 091500Z 12000KT 06/06 A3032 RMK A01 T00600060  RH  100%=      5-min Rain = 0
KJU1 091501Z 00000KT 06/06 A3032 RMK A01 T00610061  RH  100%=      5-min Rain = 0
KJU1 091502Z 04000KT 06/06 A3032 RMK A01 T00620062  RH  100%=      5-min Rain = 0
KJU1 091503Z 03000KT 06/06 A3032 RMK A01 T00630063  RH  100%=      5-min Rain = 0
KJU1 091504Z 05000KT 06/06 A3032 RMK A01 T00630063  RH  100%=      5-min Rain = 0
KJU1 091505Z 09001KT 06/06 A3032 RMK A01 T00630063  RH  100%=      5-min Rain = 0
KJU1 091506Z 02001KT 06/06 A3032 RMK A01 T00630063  RH  100%=      5-min Rain = 0
KJU1 091507Z 03000KT 06/06 A3032 RMK A01 T00630063  RH  100%=      5-min Rain = 0
KJU1 091508Z 00000KT 06/06 A3032 RMK A01 T00620062  RH  100%=      5-min Rain = 0
KJU1 091509Z 00000KT 06/06 A3032 RMK A01 T00620062  RH  100%=      5-min Rain = 0
KJU1 091510Z 00000KT 06/06 A3032 RMK A01 T00630063  RH  100%=      5-min Rain = 0
KJU1 091511Z 00000KT 06/06 A3032 RMK A01 T00630063  RH  100%=      5-min Rain = 0
KJU1 091512Z 00000KT 06/06 A3032 RMK A01 T00630063  RH  100%=      5-min Rain = 0
KJU1 091513Z 00000KT 06/06 A3032 RMK A01 T00630063  RH  100%=      5-min Rain = 0
KJU1 091514Z 33000KT 06/06 A3032 RMK A01 T00640064  RH  100%=      5-min Rain = 0
KJU1 091515Z 29000KT 06/06 A3032 RMK A01 T00640064  RH  100%=      5-min Rain = 0
KJU1 091516Z 00000KT 07/07 A3032 RMK A01 T00650065  RH  100%=      5-min Rain = 0
KJU1 091517Z 00000KT 07/07 A3032 RMK A01 T00690069  RH  100%=      5-min Rain = 0
KJU1 091518Z 00000KT 07/07 A3032 RMK A01 T00720072  RH  100%=      5-min Rain = 0
KJU1 091519Z 18000KT 07/07 A3032 RMK A01 T00740074  RH  100%=      5-min Rain = 0
KJU1 091520Z 00000KT 08/08 A3032 RMK A01 T00760076  RH  100%=      5-min Rain = 0
KJU1 091521Z 00000KT 08/08 A3032 RMK A01 T00760076  RH  100%=      5-min Rain = 0
KJU1 091522Z 00000KT 07/07 A3032 RMK A01 T00740074  RH  100%=      5-min Rain = 0
KJU1 091523Z 00000KT 07/07 A3032 RMK A01 T00730073  RH  100%=      5-min Rain = 0
KJU1 091524Z 00000KT 07/07 A3032 RMK A01 T00740074  RH  100%=      5-min Rain = 0
KJU1 091525Z 00000KT 08/08 A3032 RMK A01 T00750075  RH  100%=      5-min Rain = 0
KJU1 091526Z 07000KT 08/08 A3032 RMK A01 T00770077  RH  100%=      5-min Rain = 0
KJU1 091527Z 08001KT 08/08 A3032 RMK A01 T00780078  RH  100%=      5-min Rain = 0
KJU1 091528Z 08000KT 08/08 A3032 RMK A01 T00790079  RH  100%=      5-min Rain = 0
KJU1 091529Z 07000KT 08/08 A3032 RMK A01 T00790079  RH  100%=      5-min Rain = 0
KJU1 091530Z 08001KT 08/08 A3032 RMK A01 T00800080  RH  100%=      5-min Rain = 0
KJU1 091531Z 10000KT 08/08 A3032 RMK A01 T00810081  RH  100%=      5-min Rain = 0
KJU1 091532Z 12000KT 08/08 A3032 RMK A01 T00820082  RH  100%=      5-min Rain = 0
KJU1 091533Z 10000KT 08/08 A3032 RMK A01 T00840084  RH  100%=      5-min Rain = 0
KJU1 091534Z 08001KT 09/09 A3032 RMK A01 T00850085  RH  100%=      5-min Rain = 0
KJU1 091535Z 09000KT 09/09 A3032 RMK A01 T00850085  RH  100%=      5-min Rain = 0
KJU1 091536Z 07000KT 08/08 A3032 RMK A01 T00840084  RH  100%=      5-min Rain = 0
KJU1 091537Z 08001KT 08/08 A3032 RMK A01 T00840084  RH  100%=      5-min Rain = 0
KJU1 091538Z 11001KT 08/08 A3032 RMK A01 T00830083  RH  100%=      5-min Rain = 0
KJU1 091539Z 13000KT 08/08 A3032 RMK A01 T00830083  RH  100%=      5-min Rain = 0
KJU1 091540Z 10001KT 08/08 A3032 RMK A01 T00840084  RH  100%=      5-min Rain = 0
KJU1 091541Z 14001KT 09/09 A3032 RMK A01 T00850085  RH  100%=      5-min Rain = 0
KJU1 091542Z 20001KT 09/09 A3032 RMK A01 T00850085  RH  100%=      5-min Rain = 0
KJU1 091543Z 19000KT 09/09 A3032 RMK A01 T00870087  RH  100%=      5-min Rain = 0
KJU1 091544Z 22001KT 09/09 A3032 RMK A01 T00880088  RH  100%=      5-min Rain = 0
KJU1 091545Z 23002KT 09/09 A3032 RMK A01 T00870087  RH  100%=      5-min Rain = 0
KJU1 091546Z 24002KT 09/09 A3032 RMK A01 T00850085  RH  100%=      5-min Rain = 0
KJU1 091547Z 24002KT 09/09 A3032 RMK A01 T00850085  RH  100%=      5-min Rain = 0
KJU1 091548Z 22003KT 09/09 A3032 RMK A01 T00860086  RH  100%=      5-min Rain = 0
KJU1 091549Z 21002KT 09/09 A3032 RMK A01 T00860086  RH  100%=      5-min Rain = 0
KJU1 091550Z 22002KT 09/09 A3031 RMK A01 T00860087  RH  100%=      5-min Rain = 0
KJU1 091551Z 22002KT 09/09 A3031 RMK A01 T00870087  RH  100%=      5-min Rain = 0
KJU1 091552Z 21003KT 09/09 A3031 RMK A01 T00890089  RH  100%=      5-min Rain = 0
KJU1 091553Z 23003KT 09/09 A3032 RMK A01 T00910091  RH  100%=      5-min Rain = 0
KJU1 091554Z 23002KT 09/09 A3032 RMK A01 T00910091  RH  100%=      5-min Rain = 0
KJU1 091555Z 20002KT 09/09 A3032 RMK A01 T00920092  RH  100%=      5-min Rain = 0
KJU1 091556Z 20003KT 09/09 A3032 RMK A01 T00920092  RH  100%=      5-min Rain = 0
KJU1 091557Z 21005KT 09/09 A3032 RMK A01 T00920092  RH  100%=      5-min Rain = 0
KJU1 091558Z 20004KT 09/09 A3032 RMK A01 T00930093  RH  100%=      5-min Rain = 0
KJU1 091559Z 19005KT 10/10 A3032 RMK A01 T00950095  RH  100%=      5-min Rain = 0
KJU1 091600Z 19004KT 10/10 A3032 RMK A01 T00950095  RH  100%=      5-min Rain = 0
KJU1 091601Z 20005KT 10/10 A3031 RMK A01 T00980098  RH  100%=      5-min Rain = 0
KJU1 091602Z 21004KT 10/10 A3031 RMK A01 T00990099  RH  100%=      5-min Rain = 0
KJU1 091603Z 18006KT 10/10 A3031 RMK A01 T01010101  RH  100%=      5-min Rain = 0
KJU1 091604Z 18006KT 10/10 A3031 RMK A01 T01000100  RH  100%=      5-min Rain = 0
KJU1 091605Z 19006KT 10/10 A3031 RMK A01 T01000100  RH  100%=      5-min Rain = 0
KJU1 091606Z 18005KT 10/10 A3031 RMK A01 T01010101  RH  100%=      5-min Rain = 0
KJU1 091607Z 19005KT 10/10 A3031 RMK A01 T01030103  RH  100%=      5-min Rain = 0
KJU1 091608Z 20005KT 10/10 A3031 RMK A01 T01040104  RH  100%=      5-min Rain = 0
KJU1 091609Z 20005KT 11/11 A3031 RMK A01 T01060106  RH  100%=      5-min Rain = 0
KJU1 091610Z 19005KT 11/10 A3031 RMK A01 T01050104  RH  099%=      5-min Rain = 0
KJU1 091611Z 20005KT 11/10 A3031 RMK A01 T01050104  RH  099%=      5-min Rain = 0
KJU1 091612Z 20005KT 11/11 A3031 RMK A01 T01070106  RH  099%=      5-min Rain = 0
KJU1 091613Z 20005KT 11/11 A3031 RMK A01 T01090107  RH  099%=      5-min Rain = 0
KJU1 091614Z 20006KT 11/11 A3031 RMK A01 T01100107  RH  098%=      5-min Rain = 0
KJU1 091615Z 20006KT 11/11 A3031 RMK A01 T01120109  RH  098%=      5-min Rain = 0
KJU1 091616Z 21007KT 11/11 A3031 RMK A01 T01130108  RH  097%=      5-min Rain = 0
KJU1 091617Z 22006KT 11/11 A3031 RMK A01 T01140107  RH  095%=      5-min Rain = 0
KJU1 091618Z 21006KT 12/11 A3031 RMK A01 T01170106  RH  093%=      5-min Rain = 0
KJU1 091619Z 20007KT 12/11 A3031 RMK A01 T01200106  RH  091%=      5-min Rain = 0
KJU1 091620Z 21006KT 12/11 A3031 RMK A01 T01220105  RH  089%=      5-min Rain = 0
KJU1 091621Z 20005KT 13/11 A3031 RMK A01 T01250105  RH  088%=      5-min Rain = 0
KJU1 091622Z 21004KT 13/10 A3031 RMK A01 T01260103  RH  086%=      5-min Rain = 0
KJU1 091623Z 20004KT 13/10 A3031 RMK A01 T01280104  RH  085%=      5-min Rain = 0
KJU1 091624Z 23003KT 13/10 A3031 RMK A01 T01300101  RH  083%=      5-min Rain = 0
KJU1 091625Z 21003KT 13/10 A3031 RMK A01 T01310100  RH  082%=      5-min Rain = 0
KJU1 091626Z 20007KT 13/10 A3031 RMK A01 T01330101  RH  081%=      5-min Rain = 0
KJU1 091627Z 20006KT 13/10 A3031 RMK A01 T01340098  RH  079%=      5-min Rain = 0
KJU1 091628Z 21006KT 13/10 A3031 RMK A01 T01330098  RH  079%=      5-min Rain = 0
KJU1 091629Z 21005KT 13/10 A3031 RMK A01 T01340098  RH  079%=      5-min Rain = 0
KJU1 091630Z 21007KT 14/10 A3031 RMK A01 T01350097  RH  078%=      5-min Rain = 0
KJU1 091631Z 21007KT 13/10 A3031 RMK A01 T01340097  RH  078%=      5-min Rain = 0
KJU1 091632Z 20005KT 13/10 A3031 RMK A01 T01340096  RH  078%=      5-min Rain = 0
KJU1 091633Z 23003KT 14/10 A3031 RMK A01 T01350098  RH  078%=      5-min Rain = 0
KJU1 091634Z 22004KT 14/10 A3031 RMK A01 T01370102  RH  079%=      5-min Rain = 0
KJU1 091635Z 23006KT 14/10 A3031 RMK A01 T01390101  RH  078%=      5-min Rain = 0
KJU1 091636Z 23006KT 14/10 A3031 RMK A01 T01390098  RH  076%=      5-min Rain = 0
KJU1 091637Z 23005KT 14/10 A3031 RMK A01 T01390100  RH  077%=      5-min Rain = 0
KJU1 091638Z 23006KT 14/10 A3031 RMK A01 T01390098  RH  076%=      5-min Rain = 0
KJU1 091639Z 23003KT 14/10 A3031 RMK A01 T01400099  RH  076%=      5-min Rain = 0
KJU1 091640Z 23004KT 14/10 A3031 RMK A01 T01410101  RH  077%=      5-min Rain = 0
KJU1 091641Z 22003KT 14/10 A3031 RMK A01 T01420102  RH  076%=      5-min Rain = 0
KJU1 091642Z 19005KT 14/10 A3031 RMK A01 T01440102  RH  076%=      5-min Rain = 0
KJU1 091643Z 25004KT 15/10 A3031 RMK A01 T01450103  RH  076%=      5-min Rain = 0
KJU1 091644Z 23005KT 15/10 A3031 RMK A01 T01460103  RH  075%=      5-min Rain = 0
KJU1 091645Z 21005KT 15/10 A303 RMK A01 T01470102  RH  075%=      5-min Rain = 0
KJU1 091646Z 20007KT 15/10 A303 RMK A01 T01480104  RH  075%=      5-min Rain = 0
KJU1 091647Z 20006KT 15/10 A303 RMK A01 T01490104  RH  074%=      5-min Rain = 0
KJU1 091648Z 23005KT 15/11 A303 RMK A01 T01510107  RH  075%=      5-min Rain = 0
KJU1 091649Z 23007KT 15/11 A303 RMK A01 T01520105  RH  074%=      5-min Rain = 0
KJU1 091650Z 24007KT 15/10 A303 RMK A01 T01520104  RH  073%=      5-min Rain = 0
KJU1 091651Z 23007KT 15/10 A303 RMK A01 T01510102  RH  072%=      5-min Rain = 0
KJU1 091652Z 22005KT 15/10 A303 RMK A01 T01490101  RH  073%=      5-min Rain = 0
KJU1 091653Z 21003KT 15/10 A303 RMK A01 T01490104  RH  074%=      5-min Rain = 0
KJU1 091654Z 22006KT 15/11 A303 RMK A01 T01520106  RH  074%=      5-min Rain = 0
KJU1 091655Z 20007KT 15/10 A303 RMK A01 T01530104  RH  073%=      5-min Rain = 0
KJU1 091656Z 21006KT 15/10 A303 RMK A01 T01520102  RH  072%=      5-min Rain = 0
KJU1 091657Z 20004KT 15/10 A303 RMK A01 T01520103  RH  073%=      5-min Rain = 0
KJU1 091658Z 21006KT 15/10 A303 RMK A01 T01520103  RH  072%=      5-min Rain = 0
KJU1 091659Z 21005KT 15/10 A303 RMK A01 T01520101  RH  072%=      5-min Rain = 0
KJU1 091700Z 21005KT 15/10 A303 RMK A01 T01510102  RH  072%=      5-min Rain = 0
KJU1 091701Z 21005KT 15/10 A303 RMK A01 T01530103  RH  072%=      5-min Rain = 0
KJU1 091702Z 19006KT 15/10 A303 RMK A01 T01540103  RH  072%=      5-min Rain = 0
KJU1 091703Z 19004KT 15/10 A303 RMK A01 T01540101  RH  071%=      5-min Rain = 0
KJU1 091704Z 20005KT 15/10 A303 RMK A01 T01530101  RH  071%=      5-min Rain = 0
KJU1 091705Z 20006KT 15/10 A303 RMK A01 T01530102  RH  072%=      5-min Rain = 0
KJU1 091706Z 22005KT 16/11 A303 RMK A01 T01550105  RH  072%=      5-min Rain = 0
KJU1 091707Z 19006KT 16/11 A303 RMK A01 T01570106  RH  072%=      5-min Rain = 0
KJU1 091708Z 19005KT 16/11 A303 RMK A01 T01570105  RH  071%=      5-min Rain = 0
KJU1 091709Z 20005KT 16/11 A3029 RMK A01 T01570105  RH  071%=      5-min Rain = 0
KJU1 091710Z 20005KT 16/10 A3029 RMK A01 T01570104  RH  071%=      5-min Rain = 0
KJU1 091711Z 20006KT 16/11 A3029 RMK A01 T01570107  RH  072%=      5-min Rain = 0
KJU1 091712Z 22005KT 16/10 A3029 RMK A01 T01570103  RH  070%=      5-min Rain = 0
KJU1 091713Z 23003KT 16/10 A3029 RMK A01 T01560102  RH  070%=      5-min Rain = 0
KJU1 091714Z 24002KT 16/10 A3029 RMK A01 T01560103  RH  071%=      5-min Rain = 0
KJU1 091715Z 17001KT 16/10 A3029 RMK A01 T01560104  RH  071%=      5-min Rain = 0
KJU1 091716Z 22005KT 16/11 A3029 RMK A01 T01580106  RH  071%=      5-min Rain = 0
KJU1 091717Z 22003KT 16/10 A3029 RMK A01 T01580104  RH  070%=      5-min Rain = 0
KJU1 091718Z 13000KT 16/10 A3029 RMK A01 T01570104  RH  071%=      5-min Rain = 0
KJU1 091719Z 20002KT 16/11 A3029 RMK A01 T01580108  RH  072%=      5-min Rain = 0
KJU1 091720Z 20003KT 16/11 A3029 RMK A01 T01610110  RH  072%=      5-min Rain = 0
KJU1 091721Z 19007KT 16/11 A3029 RMK A01 T01640113  RH  072%=      5-min Rain = 0
KJU1 091722Z 19006KT 17/11 A3029 RMK A01 T01660111  RH  070%=      5-min Rain = 0
KJU1 091723Z 19007KT 17/11 A3029 RMK A01 T01650109  RH  070%=      5-min Rain = 0
KJU1 091724Z 18006KT 16/11 A3029 RMK A01 T01630107  RH  069%=      5-min Rain = 0
KJU1 091725Z 19007KT 16/11 A3029 RMK A01 T01630109  RH  070%=      5-min Rain = 0
KJU1 091726Z 20005KT 16/11 A3029 RMK A01 T01630108  RH  070%=      5-min Rain = 0
KJU1 091727Z 20003KT 16/11 A3029 RMK A01 T01630108  RH  070%=      5-min Rain = 0
KJU1 091728Z 17002KT 16/11 A3029 RMK A01 T01630108  RH  070%=      5-min Rain = 0
KJU1 091729Z 17004KT 16/11 A3029 RMK A01 T01640109  RH  070%=      5-min Rain = 0
KJU1 091730Z 21004KT 16/11 A3029 RMK A01 T01640109  RH  070%=      5-min Rain = 0
KJU1 091731Z 21002KT 17/11 A3029 RMK A01 T01650108  RH  069%=      5-min Rain = 0
KJU1 091732Z 20001KT 17/11 A3029 RMK A01 T01650108  RH  069%=      5-min Rain = 0
KJU1 091733Z 22002KT 17/11 A3028 RMK A01 T01660109  RH  069%=      5-min Rain = 0
KJU1 091734Z 19005KT 17/11 A3029 RMK A01 T01680111  RH  069%=      5-min Rain = 0
KJU1 091735Z 19007KT 17/11 A3028 RMK A01 T01700114  RH  070%=      5-min Rain = 0
KJU1 091736Z 20006KT 17/11 A3028 RMK A01 T01710112  RH  068%=      5-min Rain = 0
KJU1 091737Z 19004KT 17/12 A3028 RMK A01 T01710116  RH  070%=      5-min Rain = 0
KJU1 091738Z 18004KT 17/12 A3028 RMK A01 T01730115  RH  069%=      5-min Rain = 0
KJU1 091739Z 17004KT 17/11 A3028 RMK A01 T01740114  RH  068%=      5-min Rain = 0
KJU1 091740Z 22003KT 17/11 A3028 RMK A01 T01730112  RH  067%=      5-min Rain = 0
KJU1 091741Z 25003KT 17/11 A3028 RMK A01 T01730112  RH  068%=      5-min Rain = 0
KJU1 091742Z 25003KT 17/11 A3028 RMK A01 T01730113  RH  068%=      5-min Rain = 0
KJU1 091743Z 26004KT 17/11 A3028 RMK A01 T01730111  RH  067%=      5-min Rain = 0
KJU1 091744Z 23003KT 17/11 A3028 RMK A01 T01730111  RH  067%=      5-min Rain = 0
KJU1 091745Z 25002KT 17/11 A3028 RMK A01 T01730111  RH  067%=      5-min Rain = 0
KJU1 091746Z 26003KT 17/11 A3028 RMK A01 T01730113  RH  068%=      5-min Rain = 0
KJU1 091747Z 24002KT 17/11 A3028 RMK A01 T01740113  RH  067%=      5-min Rain = 0
KJU1 091748Z 20003KT 18/11 A3028 RMK A01 T01750113  RH  067%=      5-min Rain = 0
KJU1 091749Z 19004KT 18/11 A3027 RMK A01 T01760114  RH  067%=      5-min Rain = 0
KJU1 091750Z 22004KT 18/12 A3027 RMK A01 T01790117  RH  067%=      5-min Rain = 0
KJU1 091751Z 23005KT 18/12 A3027 RMK A01 T01800115  RH  066%=      5-min Rain = 0
KJU1 091752Z 23005KT 18/11 A3027 RMK A01 T01790113  RH  065%=      5-min Rain = 0
KJU1 091753Z 24004KT 18/11 A3027 RMK A01 T01780113  RH  066%=      5-min Rain = 0
KJU1 091754Z 26001KT 18/11 A3027 RMK A01 T01780113  RH  066%=      5-min Rain = 0
KJU1 091755Z 21004KT 18/12 A3027 RMK A01 T01800117  RH  067%=      5-min Rain = 0
KJU1 091756Z 21006KT 18/12 A3027 RMK A01 T01810115  RH  065%=      5-min Rain = 0
KJU1 091757Z 24003KT 18/12 A3027 RMK A01 T01820119  RH  067%=      5-min Rain = 0
KJU1 091758Z 25004KT 18/12 A3027 RMK A01 T01840119  RH  066%=      5-min Rain = 0
KJU1 091759Z 22004KT 19/12 A3027 RMK A01 T01850118  RH  065%=      5-min Rain = 0
KJU1 091800Z 21004KT 19/12 A3027 RMK A01 T01850115  RH  063%=      5-min Rain = 0
KJU1 091801Z 22005KT 18/12 A3027 RMK A01 T01840116  RH  064%=      5-min Rain = 0
KJU1 091802Z 20006KT 18/12 A3027 RMK A01 T01840116  RH  064%=      5-min Rain = 0
KJU1 091803Z 22006KT 18/12 A3027 RMK A01 T01840116  RH  064%=      5-min Rain = 0
KJU1 091804Z 22005KT 18/12 A3027 RMK A01 T01840118  RH  065%=      5-min Rain = 0
KJU1 091805Z 20005KT 18/12 A3027 RMK A01 T01840115  RH  064%=      5-min Rain = 0
KJU1 091806Z 21004KT 18/12 A3027 RMK A01 T01830115  RH  064%=      5-min Rain = 0
KJU1 091807Z 24004KT 18/12 A3026 RMK A01 T01830117  RH  065%=      5-min Rain = 0
KJU1 091808Z 24003KT 19/12 A3026 RMK A01 T01850119  RH  065%=      5-min Rain = 0
KJU1 091809Z 24003G8KT 19/12 A3026 RMK A01 T01870117  RH  064%=      5-min Rain = 0
KJU1 091810Z 20004KT 19/12 A3026 RMK A01 T01860116  RH  064%=      5-min Rain = 0
KJU1 091811Z 21003G8KT 19/12 A3026 RMK A01 T01860116  RH  064%=      5-min Rain = 0
KJU1 091812Z 22005KT 19/12 A3026 RMK A01 T01860116  RH  064%=      5-min Rain = 0
KJU1 091813Z 21005KT 19/12 A3026 RMK A01 T01850118  RH  065%=      5-min Rain = 0
KJU1 091814Z 22006KT 19/12 A3026 RMK A01 T01870120  RH  065%=      5-min Rain = 0
KJU1 091815Z 24005KT 19/12 A3026 RMK A01 T01870118  RH  064%=      5-min Rain = 0
KJU1 091816Z 24006KT 19/12 A3026 RMK A01 T01870118  RH  064%=      5-min Rain = 0
KJU1 091817Z 22004KT 19/12 A3026 RMK A01 T01870117  RH  063%=      5-min Rain = 0
KJU1 091818Z 22003KT 19/12 A3026 RMK A01 T01870117  RH  064%=      5-min Rain = 0
KJU1 091819Z 20003KT 19/12 A3026 RMK A01 T01880120  RH  065%=      5-min Rain = 0
KJU1 091820Z 18004KT 19/12 A3025 RMK A01 T01890120  RH  064%=      5-min Rain = 0
KJU1 091821Z 21005KT 19/12 A3025 RMK A01 T01910120  RH  063%=      5-min Rain = 0
KJU1 091822Z 23005KT 19/12 A3025 RMK A01 T01900117  RH  063%=      5-min Rain = 0
KJU1 091823Z 22003KT 19/11 A3025 RMK A01 T01870114  RH  063%=      5-min Rain = 0
KJU1 091824Z 18005KT 19/12 A3025 RMK A01 T01870117  RH  064%=      5-min Rain = 0
KJU1 091825Z 18004KT 19/12 A3025 RMK A01 T01880117  RH  063%=      5-min Rain = 0
KJU1 091826Z 19004KT 19/12 A3025 RMK A01 T01880117  RH  063%=      5-min Rain = 0
KJU1 091827Z 21004KT 19/12 A3025 RMK A01 T01890120  RH  064%=      5-min Rain = 0
KJU1 091828Z 25005KT 19/12 A3025 RMK A01 T01910119  RH  063%=      5-min Rain = 0
KJU1 091829Z 22004KT 19/12 A3025 RMK A01 T01920122  RH  064%=      5-min Rain = 0
KJU1 091830Z 23005G10KT 19/12 A3025 RMK A01 T01940121  RH  063%=      5-min Rain = 0
KJU1 091831Z 21006KT 20/12 A3025 RMK A01 T01950122  RH  063%=      5-min Rain = 0
KJU1 091832Z 24004KT 20/12 A3025 RMK A01 T01960123  RH  063%=      5-min Rain = 0
KJU1 091833Z 22002KT 20/12 A3025 RMK A01 T01970124  RH  062%=      5-min Rain = 0
KJU1 091834Z 21006KT 20/12 A3024 RMK A01 T01990124  RH  062%=      5-min Rain = 0
KJU1 091835Z 20007KT 20/12 A3024 RMK A01 T01980119  RH  060%=      5-min Rain = 0
KJU1 091836Z 20005KT 20/12 A3024 RMK A01 T01950119  RH  062%=      5-min Rain = 0
KJU1 091837Z 20006KT 19/12 A3024 RMK A01 T01940120  RH  062%=      5-min Rain = 0
KJU1 091838Z 20008KT 19/12 A3024 RMK A01 T01940120  RH  062%=      5-min Rain = 0
KJU1 091839Z 22006KT 19/12 A3024 RMK A01 T01940121  RH  062%=      5-min Rain = 0
KJU1 091840Z 22006KT 19/12 A3024 RMK A01 T01940119  RH  062%=      5-min Rain = 0
KJU1 091841Z 22007KT 19/12 A3024 RMK A01 T01930119  RH  062%=      5-min Rain = 0
KJU1 091842Z 22005KT 19/12 A3024 RMK A01 T01930121  RH  063%=      5-min Rain = 0
KJU1 091843Z 20004KT 20/13 A3024 RMK A01 T01960126  RH  064%=      5-min Rain = 0
KJU1 091844Z 20006KT 20/12 A3024 RMK A01 T01990123  RH  062%=      5-min Rain = 0
KJU1 091845Z 20005KT 20/12 A3024 RMK A01 T01980121  RH  061%=      5-min Rain = 0
KJU1 091846Z 20005KT 20/12 A3023 RMK A01 T01970123  RH  062%=      5-min Rain = 0
KJU1 091847Z 19007KT 20/12 A3023 RMK A01 T01970123  RH  062%=      5-min Rain = 0
KJU1 091848Z 23005KT 20/12 A3023 RMK A01 T01980122  RH  062%=      5-min Rain = 0
KJU1 091849Z 22005KT 20/12 A3023 RMK A01 T01990123  RH  062%=      5-min Rain = 0
KJU1 091850Z 23006KT 20/12 A3023 RMK A01 T01990123  RH  061%=      5-min Rain = 0
KJU1 091851Z 22005KT 20/12 A3023 RMK A01 T01980122  RH  061%=      5-min Rain = 0
KJU1 091852Z 22005KT 20/12 A3023 RMK A01 T01970122  RH  062%=      5-min Rain = 0
KJU1 091853Z 22005KT 20/12 A3023 RMK A01 T01980122  RH  062%=      5-min Rain = 0
KJU1 091854Z 21006KT 20/12 A3023 RMK A01 T01980122  RH  061%=      5-min Rain = 0
KJU1 091855Z 18006KT 20/12 A3023 RMK A01 T01980123  RH  062%=      5-min Rain = 0
KJU1 091856Z 19007KT 20/12 A3023 RMK A01 T01980122  RH  061%=      5-min Rain = 0
KJU1 091857Z 21007KT 20/12 A3023 RMK A01 T01980123  RH  062%=      5-min Rain = 0
KJU1 091858Z 20006KT 20/12 A3023 RMK A01 T01980122  RH  062%=      5-min Rain = 0
KJU1 091859Z 19007KT 20/12 A3023 RMK A01 T01980123  RH  062%=      5-min Rain = 0
KJU1 091900Z 20008KT 20/12 A3023 RMK A01 T01980122  RH  062%=      5-min Rain = 0
KJU1 091901Z 20008KT 20/12 A3023 RMK A01 T01970123  RH  062%=      5-min Rain = 0
KJU1 091902Z 20008KT 20/12 A3023 RMK A01 T01970122  RH  062%=      5-min Rain = 0
KJU1 091903Z 21006KT 20/12 A3023 RMK A01 T01970123  RH  062%=      5-min Rain = 0
KJU1 091904Z 20008KT 20/12 A3023 RMK A01 T01980122  RH  062%=      5-min Rain = 0
KJU1 091905Z 23006KT 20/12 A3023 RMK A01 T01980122  RH  061%=      5-min Rain = 0
KJU1 091906Z 23007KT 20/12 A3023 RMK A01 T01970121  RH  061%=      5-min Rain = 0
KJU1 091907Z 22007KT 20/12 A3022 RMK A01 T01980123  RH  062%=      5-min Rain = 0
KJU1 091908Z 24005KT 20/12 A3022 RMK A01 T01990123  RH  061%=      5-min Rain = 0
KJU1 091909Z 23006KT 20/12 A3022 RMK A01 T02000124  RH  061%=      5-min Rain = 0
KJU1 091910Z 23004KT 20/12 A3022 RMK A01 T02010123  RH  061%=      5-min Rain = 0
KJU1 091911Z 22006KT 20/12 A3022 RMK A01 T02000122  RH  061%=      5-min Rain = 0
KJU1 091912Z 21007KT 20/12 A3022 RMK A01 T02000124  RH  061%=      5-min Rain = 0
KJU1 091913Z 19006KT 20/13 A3022 RMK A01 T02000126  RH  062%=      5-min Rain = 0
KJU1 091914Z 19006KT 20/13 A3022 RMK A01 T02020127  RH  062%=      5-min Rain = 0
KJU1 091915Z 20006KT 20/13 A3022 RMK A01 T02030128  RH  062%=      5-min Rain = 0
KJU1 091916Z 21006KT 20/13 A3022 RMK A01 T02040126  RH  061%=      5-min Rain = 0
KJU1 091917Z 20005KT 20/13 A3022 RMK A01 T02030127  RH  062%=      5-min Rain = 0
KJU1 091918Z 20007KT 21/13 A3022 RMK A01 T02050129  RH  061%=      5-min Rain = 0
KJU1 091919Z 21006KT 21/13 A3022 RMK A01 T02050125  RH  060%=      5-min Rain = 0
KJU1 091920Z 20004KT 20/13 A3021 RMK A01 T02030126  RH  061%=      5-min Rain = 0
KJU1 091921Z 21005KT 20/13 A3021 RMK A01 T02030125  RH  061%=      5-min Rain = 0
KJU1 091922Z 17004KT 20/13 A3021 RMK A01 T02030125  RH  061%=      5-min Rain = 0
KJU1 091923Z 19006KT 20/13 A3021 RMK A01 T02030128  RH  062%=      5-min Rain = 0
KJU1 091924Z 20008KT 21/13 A3021 RMK A01 T02050128  RH  061%=      5-min Rain = 0
KJU1 091925Z 19007KT 21/13 A3021 RMK A01 T02060127  RH  061%=      5-min Rain = 0
KJU1 091926Z 19008KT 21/13 A3021 RMK A01 T02050127  RH  061%=      5-min Rain = 0
KJU1 091927Z 20007KT 21/13 A3021 RMK A01 T02050127  RH  061%=      5-min Rain = 0
KJU1 091928Z 21007KT 21/13 A3021 RMK A01 T02050126  RH  061%=      5-min Rain = 0
KJU1 091929Z 20005KT 20/13 A3021 RMK A01 T02040125  RH  060%=      5-min Rain = 0
KJU1 091930Z 18005KT 20/13 A3021 RMK A01 T02030127  RH  061%=      5-min Rain = 0
KJU1 091931Z 16004KT 20/13 A3021 RMK A01 T02040127  RH  061%=      5-min Rain = 0
KJU1 091932Z 17003KT 21/13 A3021 RMK A01 T02050128  RH  061%=      5-min Rain = 0
KJU1 091933Z 19006KT 21/13 A3021 RMK A01 T02070130  RH  062%=      5-min Rain = 0
KJU1 091934Z 20005KT 21/13 A3021 RMK A01 T02080131  RH  061%=      5-min Rain = 0
KJU1 091935Z 24006KT 21/13 A3021 RMK A01 T02090128  RH  060%=      5-min Rain = 0
KJU1 091936Z 23004KT 21/13 A3021 RMK A01 T02080125  RH  059%=      5-min Rain = 0
KJU1 091937Z 20003KT 21/13 A3021 RMK A01 T02060127  RH  060%=      5-min Rain = 0
KJU1 091938Z 18005KT 21/13 A302 RMK A01 T02060127  RH  060%=      5-min Rain = 0
KJU1 091939Z 18004KT 21/13 A302 RMK A01 T02070126  RH  060%=      5-min Rain = 0
KJU1 091940Z 19005KT 21/13 A302 RMK A01 T02070131  RH  062%=      5-min Rain = 0
KJU1 091941Z 18004KT 21/13 A302 RMK A01 T02080126  RH  059%=      5-min Rain = 0
KJU1 091942Z 19004KT 21/13 A302 RMK A01 T02070126  RH  060%=      5-min Rain = 0
KJU1 091943Z 23005KT 21/13 A302 RMK A01 T02060125  RH  060%=      5-min Rain = 0
KJU1 091944Z 21005KT 21/13 A302 RMK A01 T02060126  RH  060%=      5-min Rain = 0
KJU1 091945Z 22006KT 21/13 A302 RMK A01 T02060128  RH  061%=      5-min Rain = 0
KJU1 091946Z 23008KT 21/13 A302 RMK A01 T02080128  RH  060%=      5-min Rain = 0
KJU1 091947Z 23005KT 21/13 A302 RMK A01 T02080127  RH  060%=      5-min Rain = 0
KJU1 091948Z 24006KT 21/13 A302 RMK A01 T02070129  RH  061%=      5-min Rain = 0
KJU1 091949Z 25006KT 21/13 A302 RMK A01 T02080127  RH  060%=      5-min Rain = 0
KJU1 091950Z 24003KT 21/13 A302 RMK A01 T02080127  RH  060%=      5-min Rain = 0
KJU1 091951Z 20002KT 21/13 A302 RMK A01 T02100133  RH  061%=      5-min Rain = 0
KJU1 091952Z 24001KT 21/13 A302 RMK A01 T02120132  RH  060%=      5-min Rain = 0
KJU1 091953Z 24002KT 21/13 A3019 RMK A01 T02130129  RH  059%=      5-min Rain = 0
KJU1 091954Z 21006KT 21/13 A3019 RMK A01 T02130129  RH  059%=      5-min Rain = 0
KJU1 091955Z 22006KT 21/13 A3019 RMK A01 T02130131  RH  059%=      5-min Rain = 0
KJU1 091956Z 23007KT 22/13 A3019 RMK A01 T02150131  RH  059%=      5-min Rain = 0
KJU1 091957Z 23006KT 21/13 A3019 RMK A01 T02140128  RH  058%=      5-min Rain = 0
KJU1 091958Z 21005KT 21/13 A3019 RMK A01 T02120128  RH  059%=      5-min Rain = 0
KJU1 091959Z 21006KT 21/13 A3019 RMK A01 T02110127  RH  059%=      5-min Rain = 0
KJU1 092000Z 23005KT 21/13 A3019 RMK A01 T02090128  RH  060%=      5-min Rain = 0
KJU1 092001Z 23005KT 21/13 A3019 RMK A01 T02080127  RH  060%=      5-min Rain = 0
KJU1 092002Z 26004KT 21/13 A3019 RMK A01 T02080129  RH  060%=      5-min Rain = 0
KJU1 092003Z 28004KT 21/13 A3019 RMK A01 T02100129  RH  060%=      5-min Rain = 0
KJU1 092004Z 24002KT 21/13 A3019 RMK A01 T02100128  RH  059%=      5-min Rain = 0
KJU1 092005Z 28003G8KT 21/13 A3019 RMK A01 T02100129  RH  060%=      5-min Rain = 0
KJU1 092006Z 26006KT 21/13 A3019 RMK A01 T02110131  RH  060%=      5-min Rain = 0
KJU1 092007Z 26004KT 21/13 A3019 RMK A01 T02110127  RH  059%=      5-min Rain = 0
KJU1 092008Z 21004KT 21/13 A3019 RMK A01 T02100127  RH  059%=      5-min Rain = 0
KJU1 092009Z 21003KT 21/13 A3019 RMK A01 T02100128  RH  059%=      5-min Rain = 0
KJU1 092010Z 22002KT 21/13 A3019 RMK A01 T02100128  RH  059%=      5-min Rain = 0
KJU1 092011Z 21006KT 21/13 A3019 RMK A01 T02110128  RH  059%=      5-min Rain = 0
KJU1 092012Z 23004KT 21/13 A3019 RMK A01 T02110129  RH  059%=      5-min Rain = 0
KJU1 092013Z 19007KT 21/13 A3019 RMK A01 T02120131  RH  060%=      5-min Rain = 0
KJU1 092014Z 19005KT 21/13 A3019 RMK A01 T02120128  RH  059%=      5-min Rain = 0
KJU1 092015Z 18005KT 21/13 A3019 RMK A01 T02100129  RH  060%=      5-min Rain = 0
KJU1 092016Z 17005KT 21/13 A3019 RMK A01 T02090128  RH  060%=      5-min Rain = 0
KJU1 092017Z 18006KT 21/13 A3019 RMK A01 T02080131  RH  061%=      5-min Rain = 0
KJU1 092018Z 17005KT 21/13 A3019 RMK A01 T02090130  RH  061%=      5-min Rain = 0
KJU1 092019Z 18005KT 21/13 A3019 RMK A01 T02100132  RH  061%=      5-min Rain = 0
KJU1 092020Z 19004KT 21/13 A3019 RMK A01 T02110130  RH  060%=      5-min Rain = 0
KJU1 092021Z 18003KT 21/13 A3019 RMK A01 T02120128  RH  059%=      5-min Rain = 0
KJU1 092022Z 21003KT 21/13 A3019 RMK A01 T02120132  RH  060%=      5-min Rain = 0
KJU1 092023Z 26002KT 21/13 A3019 RMK A01 T02130129  RH  059%=      5-min Rain = 0
KJU1 092024Z 16000KT 21/13 A3018 RMK A01 T02130129  RH  059%=      5-min Rain = 0
KJU1 092025Z 20003KT 21/13 A3018 RMK A01 T02140132  RH  059%=      5-min Rain = 0
KJU1 092026Z 21003KT 22/13 A3018 RMK A01 T02150130  RH  058%=      5-min Rain = 0
KJU1 092027Z 23004KT 22/13 A3018 RMK A01 T02160131  RH  059%=      5-min Rain = 0
KJU1 092028Z 21004KT 22/13 A3018 RMK A01 T02170133  RH  059%=      5-min Rain = 0
KJU1 092029Z 20005KT 22/13 A3018 RMK A01 T02190133  RH  058%=      5-min Rain = 0
KJU1 092030Z 21006KT 22/13 A3018 RMK A01 T02190133  RH  058%=      5-min Rain = 0
KJU1 092031Z 23006KT 22/13 A3018 RMK A01 T02200132  RH  057%=      5-min Rain = 0
KJU1 092032Z 23005KT 22/13 A3018 RMK A01 T02180130  RH  057%=      5-min Rain = 0
KJU1 092033Z 24004KT 22/13 A3018 RMK A01 T02170129  RH  057%=      5-min Rain = 0
KJU1 092034Z 26002KT 22/13 A3018 RMK A01 T02160128  RH  057%=      5-min Rain = 0
KJU1 092035Z 21002KT 22/13 A3018 RMK A01 T02150130  RH  058%=      5-min Rain = 0
KJU1 092036Z 23002G7KT 22/13 A3018 RMK A01 T02160132  RH  059%=      5-min Rain = 0
KJU1 092037Z 23007KT 22/13 A3018 RMK A01 T02170131  RH  058%=      5-min Rain = 0
KJU1 092038Z 22004KT 22/13 A3018 RMK A01 T02170129  RH  057%=      5-min Rain = 0
KJU1 092039Z 21006KT 22/13 A3018 RMK A01 T02160132  RH  058%=      5-min Rain = 0
KJU1 092040Z 20006KT 22/13 A3018 RMK A01 T02170130  RH  058%=      5-min Rain = 0
KJU1 092041Z 20003KT 22/13 A3018 RMK A01 T02160131  RH  058%=      5-min Rain = 0
KJU1 092042Z 27002KT 22/13 A3018 RMK A01 T02150131  RH  059%=      5-min Rain = 0
KJU1 092043Z 27002KT 21/13 A3018 RMK A01 T02140129  RH  058%=      5-min Rain = 0
KJU1 092044Z 24003KT 21/13 A3018 RMK A01 T02130131  RH  059%=      5-min Rain = 0
KJU1 092045Z 22005KT 21/13 A3018 RMK A01 T02130129  RH  059%=      5-min Rain = 0
KJU1 092046Z 23005KT 21/13 A3018 RMK A01 T02120128  RH  059%=      5-min Rain = 0
KJU1 092047Z 24004KT 21/13 A3018 RMK A01 T02120130  RH  060%=      5-min Rain = 0
KJU1 092048Z 23004KT 21/13 A3018 RMK A01 T02120131  RH  060%=      5-min Rain = 0
KJU1 092049Z 25002KT 21/13 A3018 RMK A01 T02130132  RH  060%=      5-min Rain = 0
KJU1 092050Z 24004KT 21/13 A3018 RMK A01 T02140131  RH  059%=      5-min Rain = 0
KJU1 092051Z 23006KT 21/13 A3018 RMK A01 T02140130  RH  059%=      5-min Rain = 0
KJU1 092052Z 23004KT 21/13 A3018 RMK A01 T02130129  RH  059%=      5-min Rain = 0
KJU1 092053Z 22004KT 21/13 A3018 RMK A01 T02140130  RH  059%=      5-min Rain = 0
KJU1 092054Z 23004KT 21/13 A3018 RMK A01 T02130129  RH  058%=      5-min Rain = 0
KJU1 092055Z 22002KT 21/13 A3018 RMK A01 T02120128  RH  059%=      5-min Rain = 0
KJU1 092056Z 24004KT 21/13 A3018 RMK A01 T02120131  RH  060%=      5-min Rain = 0
KJU1 092057Z 25003KT 21/13 A3018 RMK A01 T02140131  RH  059%=      5-min Rain = 0
KJU1 092058Z 27002KT 22/13 A3018 RMK A01 T02150132  RH  059%=      5-min Rain = 0
KJU1 092059Z 24003KT 22/14 A3018 RMK A01 T02180136  RH  059%=      5-min Rain = 0
KJU1 092100Z 23005KT 22/13 A3018 RMK A01 T02210134  RH  058%=      5-min Rain = 0
KJU1 092101Z 25006KT 22/13 A3018 RMK A01 T02210133  RH  057%=      5-min Rain = 0
KJU1 092102Z 25007KT 22/13 A3018 RMK A01 T02200133  RH  057%=      5-min Rain = 0
KJU1 092103Z 25004KT 22/13 A3018 RMK A01 T02190133  RH  058%=      5-min Rain = 0
KJU1 092104Z 22004KT 22/13 A3018 RMK A01 T02190134  RH  058%=      5-min Rain = 0
KJU1 092105Z 24004KT 22/13 A3018 RMK A01 T02190133  RH  058%=      5-min Rain = 0
KJU1 092106Z 22006KT 22/13 A3018 RMK A01 T02200134  RH  058%=      5-min Rain = 0
KJU1 092107Z 22005KT 22/13 A3018 RMK A01 T02190132  RH  058%=      5-min Rain = 0
KJU1 092108Z 23006KT 22/13 A3018 RMK A01 T02180133  RH  058%=      5-min Rain = 0
KJU1 092109Z 22005KT 22/13 A3018 RMK A01 T02170131  RH  058%=      5-min Rain = 0
KJU1 092110Z 23004KT 22/13 A3018 RMK A01 T02160130  RH  058%=      5-min Rain = 0
KJU1 092111Z 24003KT 22/13 A3017 RMK A01 T02160131  RH  058%=      5-min Rain = 0
KJU1 092112Z 21002KT 22/13 A3017 RMK A01 T02160131  RH  058%=      5-min Rain = 0
KJU1 092113Z 19003KT 22/14 A3017 RMK A01 T02180135  RH  059%=      5-min Rain = 0
KJU1 092114Z 19002KT 22/14 A3017 RMK A01 T02190135  RH  059%=      5-min Rain = 0
KJU1 092115Z 22003KT 22/13 A3017 RMK A01 T02190131  RH  057%=      5-min Rain = 0
KJU1 092116Z 23003KT 22/13 A3017 RMK A01 T02170130  RH  058%=      5-min Rain = 0
KJU1 092117Z 22003KT 22/13 A3017 RMK A01 T02160131  RH  058%=      5-min Rain = 0
KJU1 092118Z 28003KT 22/13 A3017 RMK A01 T02160133  RH  059%=      5-min Rain = 0
KJU1 092119Z 29004KT 22/13 A3017 RMK A01 T02160132  RH  059%=      5-min Rain = 0
KJU1 092120Z 31003KT 22/13 A3017 RMK A01 T02160132  RH  059%=      5-min Rain = 0
KJU1 092121Z 27003KT 22/14 A3017 RMK A01 T02160135  RH  060%=      5-min Rain = 0
KJU1 092122Z 26003KT 22/14 A3017 RMK A01 T02190135  RH  059%=      5-min Rain = 0
KJU1 092123Z 24002KT 22/13 A3017 RMK A01 T02200133  RH  057%=      5-min Rain = 0
KJU1 092124Z 23004KT 22/14 A3017 RMK A01 T02210135  RH  058%=      5-min Rain = 0
KJU1 092125Z 26003KT 22/13 A3017 RMK A01 T02230134  RH  057%=      5-min Rain = 0
KJU1 092126Z 23004KT 22/13 A3017 RMK A01 T02220134  RH  057%=      5-min Rain = 0
KJU1 092127Z 24004KT 22/13 A3017 RMK A01 T02220133  RH  057%=      5-min Rain = 0
KJU1 092128Z 25005KT 22/14 A3016 RMK A01 T02220135  RH  058%=      5-min Rain = 0
KJU1 092129Z 23005KT 22/13 A3016 RMK A01 T02200132  RH  057%=      5-min Rain = 0
KJU1 092130Z 20004KT 22/13 A3016 RMK A01 T02200133  RH  058%=      5-min Rain = 0
KJU1 092131Z 22006KT 22/13 A3016 RMK A01 T02190133  RH  058%=      5-min Rain = 0
KJU1 092132Z 25004KT 22/13 A3016 RMK A01 T02180132  RH  058%=      5-min Rain = 0
KJU1 092133Z 26004KT 22/13 A3016 RMK A01 T02170132  RH  058%=      5-min Rain = 0
KJU1 092134Z 27004KT 22/13 A3016 RMK A01 T02160132  RH  059%=      5-min Rain = 0
KJU1 092135Z 25004KT 22/13 A3016 RMK A01 T02160133  RH  059%=      5-min Rain = 0
KJU1 092136Z 23004KT 22/14 A3016 RMK A01 T02160135  RH  060%=      5-min Rain = 0
KJU1 092137Z 25004KT 22/13 A3016 RMK A01 T02170134  RH  059%=      5-min Rain = 0
KJU1 092138Z 23002KT 22/13 A3016 RMK A01 T02170133  RH  059%=      5-min Rain = 0
KJU1 092139Z 27002KT 22/14 A3016 RMK A01 T02180135  RH  059%=      5-min Rain = 0
KJU1 092140Z 23003KT 22/13 A3016 RMK A01 T02180134  RH  059%=      5-min Rain = 0
KJU1 092141Z 20003KT 22/13 A3016 RMK A01 T02180132  RH  058%=      5-min Rain = 0
KJU1 092142Z 17003KT 22/13 A3016 RMK A01 T02180132  RH  058%=      5-min Rain = 0
KJU1 092143Z 17003KT 22/14 A3016 RMK A01 T02180135  RH  059%=      5-min Rain = 0
KJU1 092144Z 16003KT 22/13 A3016 RMK A01 T02170134  RH  059%=      5-min Rain = 0
KJU1 092145Z 19002KT 22/13 A3016 RMK A01 T02180133  RH  059%=      5-min Rain = 0
KJU1 092146Z 22003KT 22/13 A3016 RMK A01 T02170132  RH  058%=      5-min Rain = 0
KJU1 092147Z 23005KT 22/13 A3016 RMK A01 T02170133  RH  059%=      5-min Rain = 0
KJU1 092148Z 24004KT 22/13 A3016 RMK A01 T02170132  RH  058%=      5-min Rain = 0
KJU1 092149Z 25003KT 22/13 A3016 RMK A01 T02170132  RH  058%=      5-min Rain = 0
KJU1 092150Z 27002KT 22/13 A3016 RMK A01 T02170132  RH  058%=      5-min Rain = 0
KJU1 092151Z 29001KT 22/13 A3016 RMK A01 T02180132  RH  058%=      5-min Rain = 0
KJU1 092152Z 27002KT 22/14 A3016 RMK A01 T02180135  RH  059%=      5-min Rain = 0
KJU1 092153Z 23004KT 22/13 A3016 RMK A01 T02190134  RH  059%=      5-min Rain = 0
KJU1 092154Z 22004KT 22/13 A3016 RMK A01 T02190134  RH  059%=      5-min Rain = 0
KJU1 092155Z 24003KT 22/14 A3016 RMK A01 T02190135  RH  059%=      5-min Rain = 0
KJU1 092156Z 23003KT 22/14 A3016 RMK A01 T02190136  RH  059%=      5-min Rain = 0
KJU1 092157Z 23004KT 22/14 A3016 RMK A01 T02190135  RH  059%=      5-min Rain = 0
KJU1 092158Z 25005KT 22/14 A3016 RMK A01 T02190136  RH  059%=      5-min Rain = 0
KJU1 092159Z 25004KT 22/13 A3016 RMK A01 T02190134  RH  058%=      5-min Rain = 0
KJU1 092200Z 25004KT 22/14 A3016 RMK A01 T02180135  RH  059%=      5-min Rain = 0
KJU1 092201Z 24003KT 22/14 A3016 RMK A01 T02180135  RH  059%=      5-min Rain = 0
KJU1 092202Z 24004KT 22/13 A3016 RMK A01 T02180131  RH  058%=      5-min Rain = 0
KJU1 092203Z 24004KT 22/13 A3016 RMK A01 T02170132  RH  059%=      5-min Rain = 0
KJU1 092204Z 23004KT 22/13 A3016 RMK A01 T02160132  RH  059%=      5-min Rain = 0
KJU1 092205Z 21004KT 22/13 A3016 RMK A01 T02160133  RH  059%=      5-min Rain = 0
KJU1 092206Z 21004KT 22/13 A3016 RMK A01 T02160132  RH  059%=      5-min Rain = 0
KJU1 092207Z 24002KT 22/14 A3016 RMK A01 T02150135  RH  060%=      5-min Rain = 0
KJU1 092208Z 23003KT 22/13 A3016 RMK A01 T02150132  RH  059%=      5-min Rain = 0
KJU1 092209Z 25002KT 22/13 A3016 RMK A01 T02150132  RH  059%=      5-min Rain = 0
KJU1 092210Z 25001KT 22/13 A3016 RMK A01 T02150133  RH  060%=      5-min Rain = 0
KJU1 092211Z 26001KT 22/13 A3016 RMK A01 T02150134  RH  060%=      5-min Rain = 0
KJU1 092212Z 21001KT 22/13 A3016 RMK A01 T02150133  RH  059%=      5-min Rain = 0
KJU1 092213Z 18001KT 22/13 A3016 RMK A01 T02150131  RH  059%=      5-min Rain = 0
KJU1 092214Z 16001KT 22/13 A3016 RMK A01 T02150132  RH  059%=      5-min Rain = 0
KJU1 092215Z 21001KT 22/14 A3016 RMK A01 T02150135  RH  060%=      5-min Rain = 0
KJU1 092216Z 20001KT 22/13 A3016 RMK A01 T02150134  RH  060%=      5-min Rain = 0
KJU1 092217Z 21002KT 22/14 A3016 RMK A01 T02150135  RH  060%=      5-min Rain = 0
KJU1 092218Z 22002KT 22/13 A3016 RMK A01 T02160134  RH  060%=      5-min Rain = 0
KJU1 092219Z 26002KT 22/14 A3016 RMK A01 T02160136  RH  060%=      5-min Rain = 0
KJU1 092220Z 26002KT 22/13 A3016 RMK A01 T02160134  RH  060%=      5-min Rain = 0
KJU1 092221Z 23003KT 22/13 A3016 RMK A01 T02160134  RH  060%=      5-min Rain = 0
KJU1 092222Z 21004KT 22/14 A3016 RMK A01 T02160135  RH  060%=      5-min Rain = 0
KJU1 092223Z 21003KT 22/13 A3016 RMK A01 T02150134  RH  060%=      5-min Rain = 0
KJU1 092224Z 22003KT 22/13 A3015 RMK A01 T02150134  RH  060%=      5-min Rain = 0
KJU1 092225Z 23002KT 22/13 A3015 RMK A01 T02150134  RH  060%=      5-min Rain = 0
KJU1 092226Z 24003KT 22/14 A3015 RMK A01 T02150135  RH  060%=      5-min Rain = 0
KJU1 092227Z 24003KT 22/14 A3015 RMK A01 T02150135  RH  060%=      5-min Rain = 0
KJU1 092228Z 23002KT 22/13 A3015 RMK A01 T02150134  RH  060%=      5-min Rain = 0
KJU1 092229Z 22003KT 22/14 A3015 RMK A01 T02150135  RH  060%=      5-min Rain = 0
KJU1 092230Z 22002KT 22/14 A3015 RMK A01 T02150137  RH  061%=      5-min Rain = 0
KJU1 092231Z 24004KT 22/14 A3015 RMK A01 T02150136  RH  061%=      5-min Rain = 0
KJU1 092232Z 23004KT 22/14 A3015 RMK A01 T02150135  RH  060%=      5-min Rain = 0
KJU1 092233Z 22003KT 22/13 A3015 RMK A01 T02150134  RH  060%=      5-min Rain = 0
KJU1 092234Z 22004KT 22/14 A3015 RMK A01 T02150135  RH  061%=      5-min Rain = 0
KJU1 092235Z 22004KT 22/13 A3015 RMK A01 T02150134  RH  060%=      5-min Rain = 0
KJU1 092236Z 21003KT 21/13 A3015 RMK A01 T02140134  RH  060%=      5-min Rain = 0
KJU1 092237Z 22003KT 21/13 A3015 RMK A01 T02140134  RH  060%=      5-min Rain = 0
KJU1 092238Z 21003KT 21/13 A3015 RMK A01 T02140132  RH  060%=      5-min Rain = 0
KJU1 092239Z 20002KT 21/13 A3015 RMK A01 T02140133  RH  060%=      5-min Rain = 0
KJU1 092240Z 21004KT 21/14 A3015 RMK A01 T02140135  RH  061%=      5-min Rain = 0
KJU1 092241Z 21004KT 21/13 A3015 RMK A01 T02140134  RH  060%=      5-min Rain = 0
KJU1 092242Z 21003KT 21/13 A3015 RMK A01 T02130134  RH  061%=      5-min Rain = 0
KJU1 092243Z 21003KT 21/13 A3015 RMK A01 T02130134  RH  061%=      5-min Rain = 0
KJU1 092244Z 20002KT 21/14 A3015 RMK A01 T02130135  RH  061%=      5-min Rain = 0
KJU1 092245Z 21002KT 21/14 A3015 RMK A01 T02130135  RH  061%=      5-min Rain = 0
KJU1 092246Z 21002KT 21/14 A3015 RMK A01 T02130136  RH  062%=      5-min Rain = 0
KJU1 092247Z 20002KT 21/14 A3015 RMK A01 T02120136  RH  062%=      5-min Rain = 0
KJU1 092248Z 20002KT 21/14 A3015 RMK A01 T02120138  RH  062%=      5-min Rain = 0
KJU1 092249Z 21002KT 21/14 A3015 RMK A01 T02120136  RH  062%=      5-min Rain = 0
KJU1 092250Z 21003KT 21/14 A3015 RMK A01 T02120136  RH  062%=      5-min Rain = 0
KJU1 092251Z 20003KT 21/13 A3015 RMK A01 T02120134  RH  061%=      5-min Rain = 0
KJU1 092252Z 19004KT 21/14 A3015 RMK A01 T02130135  RH  061%=      5-min Rain = 0
KJU1 092253Z 19004KT 21/14 A3015 RMK A01 T02130135  RH  061%=      5-min Rain = 0
KJU1 092254Z 21004KT 21/14 A3015 RMK A01 T02130136  RH  061%=      5-min Rain = 0
KJU1 092255Z 22004KT 21/14 A3015 RMK A01 T02130135  RH  061%=      5-min Rain = 0
KJU1 092256Z 22003KT 21/13 A3015 RMK A01 T02130134  RH  061%=      5-min Rain = 0
KJU1 092257Z 21002KT 21/13 A3015 RMK A01 T02130134  RH  060%=      5-min Rain = 0
KJU1 092258Z 23003KT 21/13 A3015 RMK A01 T02130134  RH  060%=      5-min Rain = 0
KJU1 092259Z 22001KT 21/14 A3015 RMK A01 T02130135  RH  061%=      5-min Rain = 0
KJU1 092300Z 21002KT 21/14 A3015 RMK A01 T02140136  RH  061%=      5-min Rain = 0
KJU1 092301Z 21003KT 21/14 A3015 RMK A01 T02140136  RH  061%=      5-min Rain = 0
KJU1 092302Z 20002KT 21/14 A3015 RMK A01 T02140136  RH  061%=      5-min Rain = 0
KJU1 092303Z 21001KT 21/14 A3015 RMK A01 T02130136  RH  061%=      5-min Rain = 0
KJU1 092304Z 21002KT 21/14 A3015 RMK A01 T02130137  RH  062%=      5-min Rain = 0
KJU1 092305Z 20003KT 21/14 A3015 RMK A01 T02140136  RH  061%=      5-min Rain = 0
KJU1 092306Z 20001KT 21/14 A3015 RMK A01 T02140135  RH  060%=      5-min Rain = 0
KJU1 092307Z 18001KT 22/14 A3015 RMK A01 T02150138  RH  062%=      5-min Rain = 0
KJU1 092308Z 19002KT 22/14 A3015 RMK A01 T02170140  RH  062%=      5-min Rain = 0
KJU1 092309Z 21002KT 22/14 A3015 RMK A01 T02170137  RH  060%=      5-min Rain = 0
KJU1 092310Z 21002KT 22/14 A3015 RMK A01 T02180138  RH  061%=      5-min Rain = 0
KJU1 092311Z 20001KT 22/14 A3015 RMK A01 T02170136  RH  060%=      5-min Rain = 0
KJU1 092312Z 20001KT 22/14 A3015 RMK A01 T02170137  RH  060%=      5-min Rain = 0
KJU1 092313Z 18001KT 22/14 A3015 RMK A01 T02170138  RH  061%=      5-min Rain = 0
KJU1 092314Z 19001KT 22/14 A3015 RMK A01 T02170137  RH  060%=      5-min Rain = 0
KJU1 092315Z 20002KT 22/14 A3015 RMK A01 T02170137  RH  060%=      5-min Rain = 0
KJU1 092316Z 20002KT 22/14 A3015 RMK A01 T02170137  RH  060%=      5-min Rain = 0
KJU1 092317Z 20002KT 22/14 A3015 RMK A01 T02160136  RH  060%=      5-min Rain = 0
KJU1 092318Z 19002KT 22/14 A3015 RMK A01 T02160136  RH  060%=      5-min Rain = 0
KJU1 092319Z 18001KT 22/14 A3015 RMK A01 T02160136  RH  060%=      5-min Rain = 0
KJU1 092320Z 20002KT 22/14 A3015 RMK A01 T02150136  RH  061%=      5-min Rain = 0
KJU1 092321Z 21002KT 22/14 A3015 RMK A01 T02150136  RH  061%=      5-min Rain = 0
KJU1 092322Z 21002KT 22/14 A3015 RMK A01 T02150136  RH  061%=      5-min Rain = 0
KJU1 092323Z 22002KT 22/14 A3015 RMK A01 T02150135  RH  060%=      5-min Rain = 0
KJU1 092324Z 21002KT 21/13 A3015 RMK A01 T02140134  RH  060%=      5-min Rain = 0
KJU1 092325Z 22002KT 21/14 A3015 RMK A01 T02140136  RH  061%=      5-min Rain = 0
KJU1 092326Z 23002KT 21/14 A3015 RMK A01 T02130136  RH  061%=      5-min Rain = 0
KJU1 092327Z 22003KT 21/14 A3015 RMK A01 T02120135  RH  061%=      5-min Rain = 0
KJU1 092328Z 22002KT 21/14 A3015 RMK A01 T02120135  RH  061%=      5-min Rain = 0
KJU1 092329Z 22002KT 21/13 A3015 RMK A01 T02110134  RH  062%=      5-min Rain = 0
KJU1 092330Z 22002KT 21/14 A3015 RMK A01 T02100135  RH  062%=      5-min Rain = 0
KJU1 092331Z 22002KT 21/14 A3015 RMK A01 T02090135  RH  062%=      5-min Rain = 0
KJU1 092332Z 22002KT 21/14 A3015 RMK A01 T02090135  RH  063%=      5-min Rain = 0
KJU1 092333Z 21002KT 21/14 A3015 RMK A01 T02080135  RH  063%=      5-min Rain = 0
KJU1 092334Z 21002KT 21/14 A3015 RMK A01 T02070135  RH  063%=      5-min Rain = 0
KJU1 092335Z 21002KT 21/14 A3015 RMK A01 T02060135  RH  064%=      5-min Rain = 0
KJU1 092336Z 20001KT 21/14 A3015 RMK A01 T02050136  RH  065%=      5-min Rain = 0
KJU1 092337Z 20001KT 20/14 A3015 RMK A01 T02030137  RH  066%=      5-min Rain = 0
KJU1 092338Z 20001KT 20/14 A3015 RMK A01 T02020137  RH  066%=      5-min Rain = 0
KJU1 092339Z 19001KT 20/14 A3015 RMK A01 T02010137  RH  066%=      5-min Rain = 0
KJU1 092340Z 20001KT 20/14 A3015 RMK A01 T02000137  RH  067%=      5-min Rain = 0
KJU1 092341Z 20001KT 20/14 A3015 RMK A01 T01990137  RH  068%=      5-min Rain = 0
KJU1 092342Z 19001KT 20/14 A3014 RMK A01 T01960138  RH  069%=      5-min Rain = 0
KJU1 092343Z 19001KT 19/14 A3014 RMK A01 T01940137  RH  070%=      5-min Rain = 0
KJU1 092344Z 19001KT 19/14 A3014 RMK A01 T01930138  RH  070%=      5-min Rain = 0
KJU1 092345Z 17001KT 19/14 A3014 RMK A01 T01910139  RH  072%=      5-min Rain = 0
KJU1 092346Z 16001KT 19/14 A3014 RMK A01 T01890137  RH  072%=      5-min Rain = 0
KJU1 092347Z 17001KT 19/14 A3014 RMK A01 T01880135  RH  071%=      5-min Rain = 0
KJU1 092348Z 17001KT 19/13 A3014 RMK A01 T01870134  RH  071%=      5-min Rain = 0
KJU1 092349Z 17001KT 19/13 A3014 RMK A01 T01860134  RH  072%=      5-min Rain = 0
KJU1 092350Z 18001KT 19/13 A3014 RMK A01 T01860134  RH  072%=      5-min Rain = 0
KJU1 092351Z 16001KT 19/14 A3015 RMK A01 T01850135  RH  072%=      5-min Rain = 0
KJU1 092352Z 15001KT 18/14 A3015 RMK A01 T01840136  RH  073%=      5-min Rain = 0
KJU1 092353Z 15001KT 18/14 A3015 RMK A01 T01830135  RH  074%=      5-min Rain = 0
KJU1 092354Z 15001KT 18/14 A3015 RMK A01 T01810135  RH  074%=      5-min Rain = 0
KJU1 092355Z 16001KT 18/14 A3015 RMK A01 T01800136  RH  075%=      5-min Rain = 0
KJU1 092356Z 16000KT 18/14 A3015 RMK A01 T01790136  RH  076%=      5-min Rain = 0
KJU1 092357Z 00000KT 18/14 A3015 RMK A01 T01780136  RH  076%=      5-min Rain = 0
KJU1 092358Z 00000KT 18/14 A3015 RMK A01 T01770135  RH  076%=      5-min Rain = 0
KJU1 092359Z 00000KT 18/14 A3015 RMK A01 T01760135  RH  077%=      5-min Rain = 0
KJU1 100000Z 00000KT 18/14 A3015 RMK A01 T01750137  RH  078%=      5-min Rain = 0
KJU1 100001Z 00000KT 18/14 A3015 RMK A01 T01750138  RH  079%=      5-min Rain = 0
KJU1 100002Z 00000KT 17/14 A3015 RMK A01 T01740138  RH  079%=      5-min Rain = 0
KJU1 100003Z 00000KT 17/14 A3015 RMK A01 T01740140  RH  080%=      5-min Rain = 0
KJU1 100004Z 28001KT 17/14 A3015 RMK A01 T01720137  RH  080%=      5-min Rain = 0
KJU1 100005Z 29001KT 17/14 A3015 RMK A01 T01710136  RH  080%=      5-min Rain = 0
KJU1 100006Z 28001KT 17/14 A3015 RMK A01 T01700135  RH  080%=      5-min Rain = 0
KJU1 100007Z 26002KT 17/14 A3015 RMK A01 T01700136  RH  080%=      5-min Rain = 0
KJU1 100008Z 26003KT 17/14 A3015 RMK A01 T01690136  RH  081%=      5-min Rain = 0
KJU1 100009Z 25003KT 17/14 A3015 RMK A01 T01690136  RH  081%=      5-min Rain = 0
KJU1 100010Z 25003KT 17/14 A3015 RMK A01 T01680135  RH  081%=      5-min Rain = 0
KJU1 100011Z 24003KT 17/14 A3015 RMK A01 T01670135  RH  082%=      5-min Rain = 0
KJU1 100012Z 23002KT 17/14 A3015 RMK A01 T01670136  RH  082%=      5-min Rain = 0
KJU1 100013Z 23001KT 17/14 A3015 RMK A01 T01670137  RH  083%=      5-min Rain = 0
KJU1 100014Z 21002KT 17/14 A3015 RMK A01 T01660137  RH  083%=      5-min Rain = 0
KJU1 100015Z 20002KT 17/14 A3015 RMK A01 T01650137  RH  084%=      5-min Rain = 0
KJU1 100016Z 19002KT 16/14 A3015 RMK A01 T01640137  RH  084%=      5-min Rain = 0
KJU1 100017Z 19002KT 16/14 A3015 RMK A01 T01630136  RH  084%=      5-min Rain = 0
KJU1 100018Z 19002KT 16/13 A3015 RMK A01 T01610134  RH  084%=      5-min Rain = 0
KJU1 100019Z 16002KT 16/13 A3015 RMK A01 T01590132  RH  084%=      5-min Rain = 0
KJU1 100020Z 15002KT 16/13 A3015 RMK A01 T01570131  RH  084%=      5-min Rain = 0
KJU1 100021Z 15002KT 16/13 A3015 RMK A01 T01570132  RH  085%=      5-min Rain = 0
KJU1 100022Z 14002KT 16/13 A3015 RMK A01 T01560132  RH  086%=      5-min Rain = 0
KJU1 100023Z 14001KT 16/13 A3015 RMK A01 T01550132  RH  086%=      5-min Rain = 0
KJU1 100024Z 14001KT 16/13 A3015 RMK A01 T01550133  RH  086%=      5-min Rain = 0
KJU1 100025Z 15001KT 16/13 A3015 RMK A01 T01550133  RH  087%=      5-min Rain = 0
KJU1 100026Z 16001KT 16/13 A3015 RMK A01 T01550134  RH  087%=      5-min Rain = 0
KJU1 100027Z 17001KT 16/14 A3015 RMK A01 T01550135  RH  088%=      5-min Rain = 0
KJU1 100028Z 18001KT 16/14 A3015 RMK A01 T01560136  RH  088%=      5-min Rain = 0
KJU1 100029Z 19001KT 16/14 A3015 RMK A01 T01560136  RH  088%=      5-min Rain = 0
KJU1 100030Z 20002KT 16/14 A3015 RMK A01 T01560136  RH  088%=      5-min Rain = 0
KJU1 100031Z 20002KT 16/14 A3015 RMK A01 T01560136  RH  088%=      5-min Rain = 0
KJU1 100032Z 20002KT 16/14 A3015 RMK A01 T01560136  RH  088%=      5-min Rain = 0
KJU1 100033Z 20002KT 16/14 A3015 RMK A01 T01560135  RH  087%=      5-min Rain = 0
KJU1 100034Z 20002KT 16/13 A3015 RMK A01 T01550133  RH  087%=      5-min Rain = 0
KJU1 100035Z 20002KT 15/13 A3015 RMK A01 T01530130  RH  086%=      5-min Rain = 0
KJU1 100036Z 20002KT 15/13 A3015 RMK A01 T01510130  RH  087%=      5-min Rain = 0
KJU1 100037Z 20002KT 15/13 A3015 RMK A01 T01500130  RH  088%=      5-min Rain = 0
KJU1 100038Z 19003KT 15/13 A3015 RMK A01 T01500131  RH  089%=      5-min Rain = 0
KJU1 100039Z 20003KT 15/13 A3015 RMK A01 T01500133  RH  089%=      5-min Rain = 0
KJU1 100040Z 20002KT 15/13 A3015 RMK A01 T01500134  RH  090%=      5-min Rain = 0
KJU1 100041Z 20002KT 15/13 A3015 RMK A01 T01510134  RH  090%=      5-min Rain = 0
KJU1 100042Z 20002KT 15/13 A3015 RMK A01 T01510134  RH  090%=      5-min Rain = 0
KJU1 100043Z 20002KT 15/13 A3015 RMK A01 T01500134  RH  090%=      5-min Rain = 0
KJU1 100044Z 20002KT 15/13 A3015 RMK A01 T01500134  RH  090%=      5-min Rain = 0
KJU1 100045Z 20002KT 15/13 A3015 RMK A01 T01490133  RH  090%=      5-min Rain = 0
KJU1 100046Z 20002KT 15/13 A3015 RMK A01 T01490132  RH  090%=      5-min Rain = 0
KJU1 100047Z 21002KT 15/13 A3016 RMK A01 T01480130  RH  089%=      5-min Rain = 0
KJU1 100048Z 21001KT 15/13 A3016 RMK A01 T01450127  RH  089%=      5-min Rain = 0
KJU1 100049Z 21002KT 14/13 A3016 RMK A01 T01440125  RH  089%=      5-min Rain = 0
KJU1 100050Z 21002KT 14/13 A3016 RMK A01 T01430125  RH  089%=      5-min Rain = 0
KJU1 100051Z 22002KT 14/13 A3016 RMK A01 T01430127  RH  090%=      5-min Rain = 0
KJU1 100052Z 22002KT 14/13 A3016 RMK A01 T01430127  RH  090%=      5-min Rain = 0
KJU1 100053Z 22002KT 14/13 A3016 RMK A01 T01420127  RH  091%=      5-min Rain = 0
KJU1 100054Z 22002KT 14/13 A3016 RMK A01 T01420129  RH  092%=      5-min Rain = 0
KJU1 100055Z 21003KT 14/13 A3016 RMK A01 T01420129  RH  092%=      5-min Rain = 0
KJU1 100056Z 21003KT 14/13 A3016 RMK A01 T01410128  RH  091%=      5-min Rain = 0
KJU1 100057Z 21003KT 14/13 A3016 RMK A01 T01400127  RH  092%=      5-min Rain = 0
KJU1 100058Z 21003KT 14/13 A3016 RMK A01 T01400127  RH  092%=      5-min Rain = 0
KJU1 100059Z 22003KT 14/13 A3016 RMK A01 T01390127  RH  092%=      5-min Rain = 0
KJU1 100100Z 22003KT 14/13 A3016 RMK A01 T01400128  RH  093%=      5-min Rain = 0
KJU1 100101Z 21003KT 14/13 A3016 RMK A01 T01410130  RH  093%=      5-min Rain = 0
KJU1 100102Z 21003KT 14/13 A3016 RMK A01 T01420130  RH  093%=      5-min Rain = 0
KJU1 100103Z 21003KT 14/13 A3016 RMK A01 T01410129  RH  092%=      5-min Rain = 0
KJU1 100104Z 21003KT 14/13 A3016 RMK A01 T01420131  RH  093%=      5-min Rain = 0
KJU1 100105Z 21003KT 14/13 A3016 RMK A01 T01430130  RH  092%=      5-min Rain = 0
KJU1 100106Z 21003KT 14/13 A3016 RMK A01 T01420129  RH  092%=      5-min Rain = 0
KJU1 100107Z 21004KT 14/13 A3016 RMK A01 T01430130  RH  092%=      5-min Rain = 0
KJU1 100108Z 21004KT 14/13 A3016 RMK A01 T01430129  RH  091%=      5-min Rain = 0
KJU1 100109Z 21004KT 14/13 A3016 RMK A01 T01430129  RH  091%=      5-min Rain = 0
KJU1 100110Z 21005KT 14/13 A3016 RMK A01 T01430128  RH  091%=      5-min Rain = 0
KJU1 100111Z 21004KT 14/13 A3016 RMK A01 T01430129  RH  091%=      5-min Rain = 0
KJU1 100112Z 21004KT 14/13 A3016 RMK A01 T01440130  RH  091%=      5-min Rain = 0
KJU1 100113Z 20003KT 15/13 A3016 RMK A01 T01450130  RH  091%=      5-min Rain = 0
KJU1 100114Z 21004KT 15/13 A3016 RMK A01 T01460130  RH  090%=      5-min Rain = 0
KJU1 100115Z 21004KT 15/13 A3016 RMK A01 T01470130  RH  090%=      5-min Rain = 0
KJU1 100116Z 21004KT 15/13 A3016 RMK A01 T01480131  RH  090%=      5-min Rain = 0
KJU1 100117Z 20003KT 15/13 A3016 RMK A01 T01490131  RH  089%=      5-min Rain = 0
KJU1 100118Z 20003KT 15/13 A3016 RMK A01 T01500132  RH  089%=      5-min Rain = 0
KJU1 100119Z 20003KT 15/13 A3016 RMK A01 T01510131  RH  088%=      5-min Rain = 0
KJU1 100120Z 20003KT 15/13 A3016 RMK A01 T01510130  RH  087%=      5-min Rain = 0
KJU1 100121Z 20003KT 15/13 A3016 RMK A01 T01510130  RH  087%=      5-min Rain = 0
KJU1 100122Z 20003KT 15/13 A3016 RMK A01 T01510130  RH  087%=      5-min Rain = 0
KJU1 100123Z 20003KT 15/13 A3016 RMK A01 T01520130  RH  087%=      5-min Rain = 0
KJU1 100124Z 20002KT 15/13 A3016 RMK A01 T01510130  RH  087%=      5-min Rain = 0
KJU1 100125Z 19003KT 15/13 A3016 RMK A01 T01510129  RH  087%=      5-min Rain = 0
KJU1 100126Z 20003KT 15/13 A3016 RMK A01 T01510129  RH  087%=      5-min Rain = 0
KJU1 100127Z 20003KT 15/13 A3016 RMK A01 T01510129  RH  087%=      5-min Rain = 0
KJU1 100128Z 19003KT 15/13 A3016 RMK A01 T01510129  RH  087%=      5-min Rain = 0
KJU1 100129Z 20003KT 15/13 A3016 RMK A01 T01510129  RH  087%=      5-min Rain = 0
KJU1 100130Z 20003KT 15/13 A3016 RMK A01 T01510129  RH  087%=      5-min Rain = 0
KJU1 100131Z 20003KT 15/13 A3016 RMK A01 T01510129  RH  087%=      5-min Rain = 0
KJU1 100132Z 20004KT 15/13 A3016 RMK A01 T01510129  RH  087%=      5-min Rain = 0
KJU1 100133Z 20004KT 15/13 A3016 RMK A01 T01500129  RH  087%=      5-min Rain = 0
KJU1 100134Z 20004KT 15/13 A3016 RMK A01 T01510129  RH  087%=      5-min Rain = 0
KJU1 100135Z 21004KT 15/13 A3016 RMK A01 T01500129  RH  087%=      5-min Rain = 0
KJU1 100136Z 20003KT 15/13 A3016 RMK A01 T01500128  RH  087%=      5-min Rain = 0
KJU1 100137Z 20004KT 15/13 A3016 RMK A01 T01500129  RH  087%=      5-min Rain = 0
KJU1 100138Z 21004KT 15/13 A3016 RMK A01 T01500129  RH  087%=      5-min Rain = 0
KJU1 100139Z 21004KT 15/13 A3016 RMK A01 T01500128  RH  087%=      5-min Rain = 0
KJU1 100140Z 21004KT 15/13 A3016 RMK A01 T01500129  RH  087%=      5-min Rain = 0
KJU1 100141Z 22004KT 15/13 A3016 RMK A01 T01510130  RH  087%=      5-min Rain = 0
KJU1 100142Z 22004KT 15/13 A3016 RMK A01 T01520131  RH  087%=      5-min Rain = 0
KJU1 100143Z 22004KT 15/13 A3016 RMK A01 T01530130  RH  087%=      5-min Rain = 0
KJU1 100144Z 22004KT 15/13 A3017 RMK A01 T01530131  RH  086%=      5-min Rain = 0
KJU1 100145Z 22005KT 15/13 A3017 RMK A01 T01540130  RH  086%=      5-min Rain = 0
KJU1 100146Z 22005KT 16/13 A3017 RMK A01 T01550130  RH  085%=      5-min Rain = 0
KJU1 100147Z 21004KT 16/13 A3017 RMK A01 T01560130  RH  085%=      5-min Rain = 0
KJU1 100148Z 22004KT 16/13 A3017 RMK A01 T01560130  RH  084%=      5-min Rain = 0
KJU1 100149Z 22004KT 16/13 A3017 RMK A01 T01560129  RH  084%=      5-min Rain = 0
KJU1 100150Z 22004KT 16/13 A3017 RMK A01 T01570129  RH  084%=      5-min Rain = 0
KJU1 100151Z 22004KT 16/13 A3017 RMK A01 T01570129  RH  083%=      5-min Rain = 0
KJU1 100152Z 22003KT 16/13 A3017 RMK A01 T01570129  RH  083%=      5-min Rain = 0
KJU1 100153Z 22004KT 16/13 A3017 RMK A01 T01570129  RH  083%=      5-min Rain = 0
KJU1 100154Z 22004KT 16/13 A3017 RMK A01 T01570129  RH  083%=      5-min Rain = 0
KJU1 100155Z 22004KT 16/13 A3017 RMK A01 T01570129  RH  083%=      5-min Rain = 0
KJU1 100156Z 21004KT 16/13 A3017 RMK A01 T01570129  RH  083%=      5-min Rain = 0
KJU1 100157Z 21005KT 16/13 A3017 RMK A01 T01570129  RH  083%=      5-min Rain = 0
KJU1 100158Z 21005KT 16/13 A3017 RMK A01 T01570129  RH  083%=      5-min Rain = 0
KJU1 100159Z 21004KT 16/13 A3017 RMK A01 T01580128  RH  083%=      5-min Rain = 0
KJU1 100200Z 22004KT 16/13 A3017 RMK A01 T01580128  RH  082%=      5-min Rain = 0
KJU1 100201Z 21004KT 16/13 A3017 RMK A01 T01580128  RH  082%=      5-min Rain = 0
KJU1 100202Z 21004KT 16/13 A3017 RMK A01 T01580128  RH  082%=      5-min Rain = 0
KJU1 100203Z 21004KT 16/13 A3017 RMK A01 T01570128  RH  083%=      5-min Rain = 0
KJU1 100204Z 21004KT 16/13 A3017 RMK A01 T01570128  RH  083%=      5-min Rain = 0
KJU1 100205Z 21004KT 16/13 A3017 RMK A01 T01570127  RH  083%=      5-min Rain = 0
KJU1 100206Z 20004KT 16/13 A3017 RMK A01 T01570127  RH  083%=      5-min Rain = 0
KJU1 100207Z 21004KT 16/13 A3017 RMK A01 T01560127  RH  083%=      5-min Rain = 0
KJU1 100208Z 21004KT 16/13 A3017 RMK A01 T01560127  RH  083%=      5-min Rain = 0
KJU1 100209Z 21005KT 16/13 A3017 RMK A01 T01560127  RH  083%=      5-min Rain = 0
KJU1 100210Z 21005KT 16/13 A3017 RMK A01 T01560127  RH  083%=      5-min Rain = 0
KJU1 100211Z 21005KT 16/13 A3017 RMK A01 T01550127  RH  083%=      5-min Rain = 0
KJU1 100212Z 21004KT 16/13 A3017 RMK A01 T01550127  RH  083%=      5-min Rain = 0
KJU1 100213Z 21004KT 16/13 A3017 RMK A01 T01550127  RH  083%=      5-min Rain = 0
KJU1 100214Z 20004KT 16/13 A3017 RMK A01 T01550127  RH  083%=      5-min Rain = 0
KJU1 100215Z 21004KT 16/13 A3017 RMK A01 T01550126  RH  083%=      5-min Rain = 0
KJU1 100216Z 20004KT 15/13 A3017 RMK A01 T01540126  RH  083%=      5-min Rain = 0
KJU1 100217Z 20004KT 15/13 A3017 RMK A01 T01540126  RH  083%=      5-min Rain = 0
KJU1 100218Z 20004KT 15/13 A3017 RMK A01 T01530126  RH  084%=      5-min Rain = 0
KJU1 100219Z 20004KT 15/13 A3017 RMK A01 T01530126  RH  084%=      5-min Rain = 0
KJU1 100220Z 20004KT 15/13 A3017 RMK A01 T01530126  RH  084%=      5-min Rain = 0
KJU1 100221Z 20004KT 15/13 A3017 RMK A01 T01520125  RH  084%=      5-min Rain = 0
KJU1 100222Z 20003KT 15/13 A3017 RMK A01 T01510125  RH  084%=      5-min Rain = 0
KJU1 100223Z 20004KT 15/12 A3017 RMK A01 T01500124  RH  084%=      5-min Rain = 0
KJU1 100224Z 20004KT 15/13 A3017 RMK A01 T01500125  RH  085%=      5-min Rain = 0
KJU1 100225Z 21003KT 15/13 A3017 RMK A01 T01500125  RH  085%=      5-min Rain = 0
KJU1 100226Z 21004KT 15/12 A3017 RMK A01 T01490124  RH  085%=      5-min Rain = 0
KJU1 100227Z 21003KT 15/12 A3018 RMK A01 T01490124  RH  085%=      5-min Rain = 0
KJU1 100228Z 21004KT 15/12 A3018 RMK A01 T01470122  RH  085%=      5-min Rain = 0
KJU1 100229Z 21003KT 15/12 A3018 RMK A01 T01460121  RH  085%=      5-min Rain = 0
KJU1 100230Z 21003KT 15/12 A3018 RMK A01 T01450122  RH  086%=      5-min Rain = 0
KJU1 100231Z 20004KT 15/12 A3018 RMK A01 T01450122  RH  086%=      5-min Rain = 0
KJU1 100232Z 20004KT 14/12 A3018 RMK A01 T01430121  RH  086%=      5-min Rain = 0
KJU1 100233Z 20004KT 14/12 A3018 RMK A01 T01430121  RH  087%=      5-min Rain = 0
KJU1 100234Z 20004KT 14/12 A3018 RMK A01 T01420121  RH  087%=      5-min Rain = 0
KJU1 100235Z 20003KT 14/12 A3018 RMK A01 T01420121  RH  087%=      5-min Rain = 0
KJU1 100236Z 20004KT 14/12 A3018 RMK A01 T01410120  RH  087%=      5-min Rain = 0
KJU1 100237Z 19004KT 14/12 A3018 RMK A01 T01400119  RH  087%=      5-min Rain = 0
KJU1 100238Z 19004KT 14/12 A3018 RMK A01 T01390119  RH  088%=      5-min Rain = 0
KJU1 100239Z 19004KT 14/12 A3018 RMK A01 T01380120  RH  089%=      5-min Rain = 0
KJU1 100240Z 19004KT 14/12 A3018 RMK A01 T01380120  RH  089%=      5-min Rain = 0
KJU1 100241Z 20004KT 14/12 A3018 RMK A01 T01380120  RH  089%=      5-min Rain = 0
KJU1 100242Z 20004KT 14/12 A3018 RMK A01 T01360119  RH  089%=      5-min Rain = 0
KJU1 100243Z 20004KT 14/12 A3018 RMK A01 T01350117  RH  089%=      5-min Rain = 0
KJU1 100244Z 20004KT 13/12 A3018 RMK A01 T01340118  RH  090%=      5-min Rain = 0
KJU1 100245Z 20004KT 13/12 A3018 RMK A01 T01340119  RH  091%=      5-min Rain = 0
KJU1 100246Z 20004KT 13/12 A3018 RMK A01 T01340120  RH  091%=      5-min Rain = 0
KJU1 100247Z 20004KT 13/12 A3018 RMK A01 T01340120  RH  091%=      5-min Rain = 0
KJU1 100248Z 20004KT 13/12 A3018 RMK A01 T01340121  RH  091%=      5-min Rain = 0
KJU1 100249Z 20004KT 13/12 A3018 RMK A01 T01340121  RH  091%=      5-min Rain = 0
KJU1 100250Z 20004KT 13/12 A3018 RMK A01 T01340121  RH  091%=      5-min Rain = 0
KJU1 100251Z 20004KT 13/12 A3018 RMK A01 T01340120  RH  091%=      5-min Rain = 0
KJU1 100252Z 20004KT 13/12 A3017 RMK A01 T01340120  RH  091%=      5-min Rain = 0
KJU1 100253Z 20004KT 13/12 A3017 RMK A01 T01340120  RH  091%=      5-min Rain = 0
KJU1 100254Z 20004KT 13/12 A3017 RMK A01 T01340120  RH  091%=      5-min Rain = 0
KJU1 100255Z 20004KT 13/12 A3017 RMK A01 T01340120  RH  091%=      5-min Rain = 0
KJU1 100256Z 20004KT 13/12 A3017 RMK A01 T01340120  RH  091%=      5-min Rain = 0
KJU1 100257Z 20005KT 13/12 A3017 RMK A01 T01340120  RH  091%=      5-min Rain = 0
KJU1 100258Z 20005KT 13/12 A3017 RMK A01 T01340120  RH  091%=      5-min Rain = 0
KJU1 100259Z 21005KT 13/12 A3017 RMK A01 T01340120  RH  091%=      5-min Rain = 0
KJU1 100300Z 21005KT 13/12 A3017 RMK A01 T01340120  RH  091%=      5-min Rain = 0
KJU1 100301Z 21005KT 14/12 A3017 RMK A01 T01350121  RH  091%=      5-min Rain = 0
KJU1 100302Z 21005KT 14/12 A3018 RMK A01 T01360122  RH  091%=      5-min Rain = 0
KJU1 100303Z 21005KT 14/12 A3018 RMK A01 T01370122  RH  091%=      5-min Rain = 0
KJU1 100304Z 21005KT 14/12 A3018 RMK A01 T01380122  RH  090%=      5-min Rain = 0
KJU1 100305Z 21005KT 14/12 A3018 RMK A01 T01380122  RH  090%=      5-min Rain = 0
KJU1 100306Z 20005KT 14/12 A3018 RMK A01 T01390123  RH  090%=      5-min Rain = 0
KJU1 100307Z 21005KT 14/12 A3018 RMK A01 T01380122  RH  090%=      5-min Rain = 0
KJU1 100308Z 21005KT 14/12 A3018 RMK A01 T01390122  RH  090%=      5-min Rain = 0
KJU1 100309Z 20004KT 14/12 A3018 RMK A01 T01390122  RH  089%=      5-min Rain = 0
KJU1 100310Z 20004KT 14/12 A3018 RMK A01 T01390122  RH  089%=      5-min Rain = 0
KJU1 100311Z 20005KT 14/12 A3018 RMK A01 T01390122  RH  089%=      5-min Rain = 0
KJU1 100312Z 21005KT 14/12 A3018 RMK A01 T01390122  RH  089%=      5-min Rain = 0
KJU1 100313Z 20005KT 14/12 A3018 RMK A01 T01390121  RH  089%=      5-min Rain = 0
KJU1 100314Z 20005KT 14/12 A3018 RMK A01 T01390121  RH  089%=      5-min Rain = 0
KJU1 100315Z 20004KT 14/12 A3018 RMK A01 T01390121  RH  089%=      5-min Rain = 0
KJU1 100316Z 20005KT 14/12 A3018 RMK A01 T01390120  RH  089%=      5-min Rain = 0
KJU1 100317Z 21006KT 14/12 A3018 RMK A01 T01390121  RH  089%=      5-min Rain = 0
KJU1 100318Z 21005KT 14/12 A3018 RMK A01 T01380120  RH  089%=      5-min Rain = 0
KJU1 100319Z 21005KT 14/12 A3018 RMK A01 T01390121  RH  089%=      5-min Rain = 0
KJU1 100320Z 21005KT 14/12 A3018 RMK A01 T01390121  RH  089%=      5-min Rain = 0
KJU1 100321Z 21005KT 14/12 A3018 RMK A01 T01400121  RH  088%=      5-min Rain = 0
KJU1 100322Z 21004KT 14/12 A3018 RMK A01 T01400121  RH  088%=      5-min Rain = 0
KJU1 100323Z 21005KT 14/12 A3018 RMK A01 T01400120  RH  088%=      5-min Rain = 0
KJU1 100324Z 21005KT 14/12 A3018 RMK A01 T01400120  RH  088%=      5-min Rain = 0
KJU1 100325Z 20005KT 14/12 A3018 RMK A01 T01400121  RH  088%=      5-min Rain = 0
KJU1 100326Z 21004KT 14/12 A3018 RMK A01 T01390120  RH  088%=      5-min Rain = 0
KJU1 100327Z 21005KT 14/12 A3018 RMK A01 T01390120  RH  088%=      5-min Rain = 0
KJU1 100328Z 21005KT 14/12 A3018 RMK A01 T01390120  RH  088%=      5-min Rain = 0
KJU1 100329Z 21005KT 14/12 A3018 RMK A01 T01390120  RH  088%=      5-min Rain = 0
KJU1 100330Z 21005KT 14/12 A3018 RMK A01 T01390120  RH  088%=      5-min Rain = 0
KJU1 100331Z 21005KT 14/12 A3018 RMK A01 T01390120  RH  088%=      5-min Rain = 0
KJU1 100332Z 21004KT 14/12 A3018 RMK A01 T01380119  RH  088%=      5-min Rain = 0
KJU1 100333Z 21004KT 14/12 A3018 RMK A01 T01380119  RH  089%=      5-min Rain = 0
KJU1 100334Z 21004KT 14/12 A3018 RMK A01 T01370119  RH  089%=      5-min Rain = 0
KJU1 100335Z 21004KT 14/12 A3018 RMK A01 T01370119  RH  089%=      5-min Rain = 0
KJU1 100336Z 21004KT 14/12 A3018 RMK A01 T01370119  RH  089%=      5-min Rain = 0
KJU1 100337Z 21004KT 14/12 A3018 RMK A01 T01370119  RH  089%=      5-min Rain = 0
KJU1 100338Z 21004KT 14/12 A3018 RMK A01 T01370119  RH  089%=      5-min Rain = 0
KJU1 100339Z 21004KT 14/12 A3018 RMK A01 T01370118  RH  089%=      5-min Rain = 0
KJU1 100340Z 20004KT 14/12 A3018 RMK A01 T01360118  RH  089%=      5-min Rain = 0
KJU1 100341Z 20004KT 14/12 A3018 RMK A01 T01360118  RH  089%=      5-min Rain = 0
KJU1 100342Z 20004KT 13/12 A3018 RMK A01 T01340116  RH  089%=      5-min Rain = 0
KJU1 100343Z 20004KT 13/12 A3018 RMK A01 T01330115  RH  089%=      5-min Rain = 0
KJU1 100344Z 20004KT 13/12 A3018 RMK A01 T01330116  RH  089%=      5-min Rain = 0
KJU1 100345Z 20004KT 13/12 A3018 RMK A01 T01330117  RH  090%=      5-min Rain = 0
KJU1 100346Z 20004KT 13/12 A3018 RMK A01 T01320115  RH  090%=      5-min Rain = 0
KJU1 100347Z 20003KT 13/11 A3018 RMK A01 T01310114  RH  090%=      5-min Rain = 0
KJU1 100348Z 20004KT 13/12 A3018 RMK A01 T01300115  RH  090%=      5-min Rain = 0
KJU1 100349Z 20004KT 13/12 A3018 RMK A01 T01300116  RH  091%=      5-min Rain = 0
KJU1 100350Z 20004KT 13/12 A3018 RMK A01 T01300116  RH  091%=      5-min Rain = 0
KJU1 100351Z 20004KT 13/12 A3018 RMK A01 T01300115  RH  091%=      5-min Rain = 0
KJU1 100352Z 20003KT 13/11 A3018 RMK A01 T01290114  RH  090%=      5-min Rain = 0
KJU1 100353Z 20004KT 13/12 A3018 RMK A01 T01290115  RH  091%=      5-min Rain = 0
KJU1 100354Z 20004KT 13/12 A3018 RMK A01 T01290115  RH  091%=      5-min Rain = 0
KJU1 100355Z 20004KT 13/12 A3018 RMK A01 T01300115  RH  091%=      5-min Rain = 0
KJU1 100356Z 20004KT 13/11 A3018 RMK A01 T01300114  RH  090%=      5-min Rain = 0
KJU1 100357Z 20004KT 13/11 A3018 RMK A01 T01290113  RH  090%=      5-min Rain = 0
KJU1 100358Z 20004KT 13/11 A3018 RMK A01 T01290114  RH  091%=      5-min Rain = 0
KJU1 100359Z 20004KT 13/11 A3018 RMK A01 T01280114  RH  091%=      5-min Rain = 0
KJU1 100400Z 21004KT 13/11 A3018 RMK A01 T01280113  RH  091%=      5-min Rain = 0
KJU1 100401Z 20005KT 13/11 A3018 RMK A01 T01280114  RH  091%=      5-min Rain = 0
KJU1 100402Z 21005KT 13/12 A3018 RMK A01 T01290115  RH  091%=      5-min Rain = 0
KJU1 100403Z 21005KT 13/11 A3018 RMK A01 T01290114  RH  091%=      5-min Rain = 0
KJU1 100404Z 21005KT 13/11 A3018 RMK A01 T01290114  RH  091%=      5-min Rain = 0
KJU1 100405Z 21005KT 13/12 A3018 RMK A01 T01300115  RH  091%=      5-min Rain = 0
KJU1 100406Z 21005KT 13/12 A3018 RMK A01 T01310116  RH  091%=      5-min Rain = 0
KJU1 100407Z 21004KT 13/12 A3018 RMK A01 T01320116  RH  090%=      5-min Rain = 0
KJU1 100408Z 21005KT 13/12 A3018 RMK A01 T01320116  RH  090%=      5-min Rain = 0
KJU1 100409Z 21004KT 13/12 A3018 RMK A01 T01330115  RH  089%=      5-min Rain = 0
KJU1 100410Z 21005KT 13/12 A3018 RMK A01 T01330115  RH  089%=      5-min Rain = 0
KJU1 100411Z 21004KT 13/12 A3018 RMK A01 T01330115  RH  089%=      5-min Rain = 0
KJU1 100412Z 21004KT 13/11 A3018 RMK A01 T01330114  RH  089%=      5-min Rain = 0
KJU1 100413Z 22004KT 13/12 A3018 RMK A01 T01330115  RH  089%=      5-min Rain = 0
KJU1 100414Z 21005KT 13/12 A3018 RMK A01 T01330115  RH  089%=      5-min Rain = 0
KJU1 100415Z 21004KT 13/11 A3018 RMK A01 T01320114  RH  089%=      5-min Rain = 0
KJU1 100416Z 21005KT 13/11 A3018 RMK A01 T01320114  RH  089%=      5-min Rain = 0
KJU1 100417Z 22005KT 13/11 A3018 RMK A01 T01320114  RH  089%=      5-min Rain = 0
KJU1 100418Z 21005KT 13/12 A3018 RMK A01 T01320115  RH  089%=      5-min Rain = 0
KJU1 100419Z 21005KT 13/12 A3018 RMK A01 T01320115  RH  089%=      5-min Rain = 0
KJU1 100420Z 21005KT 13/11 A3018 RMK A01 T01310114  RH  089%=      5-min Rain = 0
KJU1 100421Z 21005KT 13/11 A3018 RMK A01 T01310114  RH  089%=      5-min Rain = 0
KJU1 100422Z 21005KT 13/11 A3018 RMK A01 T01310114  RH  089%=      5-min Rain = 0
KJU1 100423Z 21005KT 13/11 A3018 RMK A01 T01310114  RH  090%=      5-min Rain = 0
KJU1 100424Z 21005KT 13/11 A3018 RMK A01 T01310114  RH  090%=      5-min Rain = 0
KJU1 100425Z 21005KT 13/11 A3018 RMK A01 T01310114  RH  090%=      5-min Rain = 0
KJU1 100426Z 21005KT 13/11 A3018 RMK A01 T01310114  RH  090%=      5-min Rain = 0
KJU1 100427Z 21005KT 13/11 A3018 RMK A01 T01310114  RH  090%=      5-min Rain = 0
KJU1 100428Z 21006KT 13/11 A3018 RMK A01 T01310114  RH  090%=      5-min Rain = 0
KJU1 100429Z 21005KT 13/11 A3018 RMK A01 T01310114  RH  090%=      5-min Rain = 0
KJU1 100430Z 21005KT 13/11 A3018 RMK A01 T01310114  RH  090%=      5-min Rain = 0
KJU1 100431Z 21006KT 13/11 A3018 RMK A01 T01310114  RH  090%=      5-min Rain = 0
KJU1 100432Z 21005KT 13/11 A3018 RMK A01 T01310114  RH  090%=      5-min Rain = 0
KJU1 100433Z 21006KT 13/11 A3018 RMK A01 T01310114  RH  089%=      5-min Rain = 0
KJU1 100434Z 21005KT 13/11 A3018 RMK A01 T01310114  RH  089%=      5-min Rain = 0
KJU1 100435Z 21005KT 13/11 A3018 RMK A01 T01310114  RH  089%=      5-min Rain = 0
KJU1 100436Z 21005KT 13/11 A3018 RMK A01 T01310114  RH  089%=      5-min Rain = 0
KJU1 100437Z 21005KT 13/11 A3018 RMK A01 T01310114  RH  090%=      5-min Rain = 0
KJU1 100438Z 21005KT 13/11 A3018 RMK A01 T01300114  RH  090%=      5-min Rain = 0
KJU1 100439Z 21005KT 13/11 A3018 RMK A01 T01300114  RH  090%=      5-min Rain = 0
KJU1 100440Z 20005KT 13/11 A3018 RMK A01 T01300114  RH  090%=      5-min Rain = 0
KJU1 100441Z 21005KT 13/11 A3018 RMK A01 T01300113  RH  090%=      5-min Rain = 0
KJU1 100442Z 21005KT 13/11 A3018 RMK A01 T01300113  RH  090%=      5-min Rain = 0
KJU1 100443Z 21005KT 13/11 A3018 RMK A01 T01300113  RH  090%=      5-min Rain = 0
KJU1 100444Z 20005KT 13/11 A3018 RMK A01 T01290113  RH  090%=      5-min Rain = 0
KJU1 100445Z 21005KT 13/11 A3018 RMK A01 T01290113  RH  090%=      5-min Rain = 0
KJU1 100446Z 20005KT 13/11 A3018 RMK A01 T01280113  RH  090%=      5-min Rain = 0
KJU1 100447Z 20005KT 13/11 A3018 RMK A01 T01280113  RH  090%=      5-min Rain = 0
KJU1 100448Z 21005KT 13/11 A3018 RMK A01 T01280112  RH  090%=      5-min Rain = 0
KJU1 100449Z 20005KT 13/11 A3018 RMK A01 T01270111  RH  090%=      5-min Rain = 0
KJU1 100450Z 20005KT 13/11 A3018 RMK A01 T01270112  RH  091%=      5-min Rain = 0
KJU1 100451Z 20005KT 13/11 A3018 RMK A01 T01270112  RH  091%=      5-min Rain = 0
KJU1 100452Z 20005KT 13/11 A3018 RMK A01 T01260112  RH  091%=      5-min Rain = 0
KJU1 100453Z 20005KT 13/11 A3018 RMK A01 T01260112  RH  091%=      5-min Rain = 0
KJU1 100454Z 20005KT 13/11 A3018 RMK A01 T01260111  RH  091%=      5-min Rain = 0
KJU1 100455Z 21005KT 13/11 A3018 RMK A01 T01250111  RH  091%=      5-min Rain = 0
KJU1 100456Z 20004KT 13/11 A3018 RMK A01 T01250112  RH  091%=      5-min Rain = 0
KJU1 100457Z 20005KT 13/11 A3018 RMK A01 T01250112  RH  091%=      5-min Rain = 0
KJU1 100458Z 20005KT 13/11 A3018 RMK A01 T01250111  RH  091%=      5-min Rain = 0
KJU1 100459Z 20005KT 13/11 A3018 RMK A01 T01250111  RH  091%=      5-min Rain = 0
KJU1 100500Z 20005KT 12/11 A3018 RMK A01 T01240111  RH  091%=      5-min Rain = 0
KJU1 100501Z 20005KT 12/11 A3018 RMK A01 T01240110  RH  091%=      5-min Rain = 0
KJU1 100502Z 20005KT 12/11 A3018 RMK A01 T01230110  RH  092%=      5-min Rain = 0
KJU1 100503Z 20005KT 12/11 A3018 RMK A01 T01230110  RH  092%=      5-min Rain = 0
KJU1 100504Z 20005KT 12/11 A3018 RMK A01 T01220109  RH  092%=      5-min Rain = 0
KJU1 100505Z 20005KT 12/11 A3018 RMK A01 T01220109  RH  092%=      5-min Rain = 0
KJU1 100506Z 20005KT 12/11 A3018 RMK A01 T01210109  RH  092%=      5-min Rain = 0
KJU1 100507Z 20004KT 12/11 A3018 RMK A01 T01210109  RH  092%=      5-min Rain = 0
KJU1 100508Z 20004KT 12/11 A3018 RMK A01 T01200108  RH  092%=      5-min Rain = 0
KJU1 100509Z 19004KT 12/11 A3018 RMK A01 T01200108  RH  093%=      5-min Rain = 0
KJU1 100510Z 19004KT 12/11 A3018 RMK A01 T01190108  RH  093%=      5-min Rain = 0
KJU1 100511Z 19004KT 12/11 A3018 RMK A01 T01190108  RH  093%=      5-min Rain = 0
KJU1 100512Z 19004KT 12/11 A3018 RMK A01 T01190108  RH  093%=      5-min Rain = 0
KJU1 100513Z 19004KT 12/11 A3018 RMK A01 T01190108  RH  093%=      5-min Rain = 0
KJU1 100514Z 19004KT 12/11 A3018 RMK A01 T01180108  RH  093%=      5-min Rain = 0
KJU1 100515Z 19004KT 12/11 A3018 RMK A01 T01180108  RH  094%=      5-min Rain = 0
KJU1 100516Z 20005KT 12/11 A3018 RMK A01 T01180108  RH  094%=      5-min Rain = 0
KJU1 100517Z 20005KT 12/11 A3018 RMK A01 T01180108  RH  094%=      5-min Rain = 0
KJU1 100518Z 20004KT 12/11 A3018 RMK A01 T01170108  RH  094%=      5-min Rain = 0
KJU1 100519Z 20004KT 12/11 A3018 RMK A01 T01170108  RH  094%=      5-min Rain = 0
KJU1 100520Z 20004KT 12/11 A3018 RMK A01 T01180108  RH  094%=      5-min Rain = 0
KJU1 100521Z 20004KT 12/11 A3018 RMK A01 T01170108  RH  094%=      5-min Rain = 0
KJU1 100522Z 20004KT 12/11 A3018 RMK A01 T01170108  RH  094%=      5-min Rain = 0
KJU1 100523Z 20004KT 12/11 A3018 RMK A01 T01170108  RH  094%=      5-min Rain = 0
KJU1 100524Z 20004KT 12/11 A3018 RMK A01 T01170108  RH  094%=      5-min Rain = 0
KJU1 100525Z 20004KT 12/11 A3018 RMK A01 T01180109  RH  094%=      5-min Rain = 0
KJU1 100526Z 19004KT 12/11 A3018 RMK A01 T01180109  RH  094%=      5-min Rain = 0
KJU1 100527Z 19003KT 12/11 A3018 RMK A01 T01170108  RH  094%=      5-min Rain = 0
KJU1 100528Z 20004KT 12/11 A3018 RMK A01 T01170108  RH  094%=      5-min Rain = 0
KJU1 100529Z 19003KT 12/11 A3018 RMK A01 T01170108  RH  094%=      5-min Rain = 0
KJU1 100530Z 20003KT 12/11 A3018 RMK A01 T01170108  RH  094%=      5-min Rain = 0
KJU1 100531Z 20003KT 12/11 A3018 RMK A01 T01160107  RH  094%=      5-min Rain = 0
KJU1 100532Z 20003KT 12/11 A3018 RMK A01 T01170108  RH  094%=      5-min Rain = 0
KJU1 100533Z 20003KT 12/11 A3018 RMK A01 T01160107  RH  094%=      5-min Rain = 0
KJU1 100534Z 20003KT 12/11 A3018 RMK A01 T01160107  RH  094%=      5-min Rain = 0
KJU1 100535Z 20003KT 12/11 A3018 RMK A01 T01160108  RH  094%=      5-min Rain = 0
KJU1 100536Z 20003KT 12/11 A3018 RMK A01 T01160107  RH  095%=      5-min Rain = 0
KJU1 100537Z 20003KT 12/11 A3018 RMK A01 T01160108  RH  095%=      5-min Rain = 0
KJU1 100538Z 20003KT 12/11 A3018 RMK A01 T01160107  RH  095%=      5-min Rain = 0
KJU1 100539Z 20003KT 12/11 A3018 RMK A01 T01160108  RH  095%=      5-min Rain = 0
KJU1 100540Z 20003KT 12/11 A3018 RMK A01 T01150107  RH  095%=      5-min Rain = 0
KJU1 100541Z 20003KT 12/11 A3018 RMK A01 T01150107  RH  095%=      5-min Rain = 0
KJU1 100542Z 20002KT 12/11 A3018 RMK A01 T01150107  RH  095%=      5-min Rain = 0
KJU1 100543Z 20002KT 12/11 A3018 RMK A01 T01150107  RH  095%=      5-min Rain = 0
KJU1 100544Z 18002KT 12/11 A3018 RMK A01 T01150107  RH  095%=      5-min Rain = 0
KJU1 100545Z 19002KT 12/11 A3018 RMK A01 T01150108  RH  095%=      5-min Rain = 0
KJU1 100546Z 18003KT 12/11 A3017 RMK A01 T01150108  RH  095%=      5-min Rain = 0
KJU1 100547Z 18002KT 12/11 A3017 RMK A01 T01160108  RH  095%=      5-min Rain = 0
KJU1 100548Z 17002KT 12/11 A3017 RMK A01 T01160108  RH  095%=      5-min Rain = 0
KJU1 100549Z 18002KT 12/11 A3017 RMK A01 T01160108  RH  095%=      5-min Rain = 0
KJU1 100550Z 18002KT 12/11 A3017 RMK A01 T01160108  RH  095%=      5-min Rain = 0
KJU1 100551Z 17002KT 12/11 A3017 RMK A01 T01160108  RH  095%=      5-min Rain = 0
KJU1 100552Z 18002KT 12/11 A3017 RMK A01 T01160108  RH  095%=      5-min Rain = 0
KJU1 100553Z 18003KT 12/11 A3017 RMK A01 T01150106  RH  094%=      5-min Rain = 0
KJU1 100554Z 18003KT 11/11 A3017 RMK A01 T01130105  RH  094%=      5-min Rain = 0
KJU1 100555Z 18003KT 11/10 A3017 RMK A01 T01110101  RH  094%=      5-min Rain = 0
KJU1 100556Z 19003KT 11/10 A3017 RMK A01 T01100100  RH  094%=      5-min Rain = 0
KJU1 100557Z 18003KT 11/10 A3017 RMK A01 T01080099  RH  094%=      5-min Rain = 0
KJU1 100558Z 19003KT 11/10 A3017 RMK A01 T01080099  RH  094%=      5-min Rain = 0
KJU1 100559Z 19003KT 11/10 A3017 RMK A01 T01100103  RH  096%=      5-min Rain = 0

Page generated in 0.1355 seconds.